| time (UTC) | temp F | wind direction | speed MPH | gust MPH | rain 1hr in | rain 24hr in | rain mn in | humidity % | barometer mb |
| 20260507065747 | 60 | 266 | 1.0 | 6.0 | 0.00 | 0.00 | 0.00 | 79 | 1049.2 |
| 20260507065725 | 60 | 263 | 1.0 | 3.0 | 0.00 | 0.00 | 0.00 | 80 | 1049.1 |
| 20260507065631 | 60 | 263 | 1.0 | 3.0 | 0.00 | 0.00 | 0.00 | 80 | 1049.1 |
| 20260507065154 | 60 | 263 | 1.0 | 2.0 | 0.00 | 0.00 | 0.00 | 80 | 1049.2 |
| 20260507065054 | 59 | 262 | 1.0 | 2.0 | 0.00 | 0.00 | 0.00 | 80 | 1049.2 |
| 20260507064954 | 59 | 263 | 0.0 | 2.0 | 0.00 | 0.00 | 0.00 | 81 | 1049.1 |
| 20260507064854 | 59 | 264 | 0.0 | 2.0 | 0.00 | 0.00 | 0.00 | 81 | 1049.1 |
| 20260507064821 | 59 | 263 | 0.0 | 2.0 | 0.00 | 0.00 | 0.00 | 81 | 1049.0 |
| 20260507064748 | 59 | 263 | 0.0 | 2.0 | 0.00 | 0.00 | 0.00 | 82 | 1049.0 |
| 20260507064648 | 59 | 263 | 0.0 | 2.0 | 0.00 | 0.00 | 0.00 | 83 | 1049.0 |
| 20260507064548 | 58 | 263 | 0.0 | 2.0 | 0.00 | 0.00 | 0.00 | 83 | 1049.1 |
| 20260507064449 | 58 | 263 | 1.0 | 3.0 | 0.00 | 0.00 | 0.00 | 83 | 1049.0 |
| 20260507064348 | 58 | 263 | 1.0 | 4.0 | 0.00 | 0.00 | 0.00 | 83 | 1049.0 |
| 20260507064320 | 58 | 263 | 1.0 | 4.0 | 0.00 | 0.00 | 0.00 | 84 | 1049.0 |
| 20260507064244 | 58 | 263 | 1.0 | 4.0 | 0.00 | 0.00 | 0.00 | 84 | 1049.0 |
| 20260507064142 | 58 | 263 | 1.0 | 4.0 | 0.00 | 0.00 | 0.00 | 85 | 1049.0 |
| 20260507064058 | 57 | 264 | 1.0 | 4.0 | 0.00 | 0.00 | 0.00 | 85 | 1049.0 |
| 20260507064051 | 57 | 264 | 2.0 | 4.0 | 0.00 | 0.00 | 0.00 | 85 | 1048.8 |
| 20260507064037 | 57 | 263 | 2.0 | 6.0 | 0.00 | 0.00 | 0.00 | 85 | 1048.8 |
| 20260507063740 | 57 | 263 | 2.0 | 6.0 | 0.00 | 0.00 | 0.00 | 86 | 1048.8 |
| 20260507063641 | 57 | 263 | 2.0 | 6.0 | 0.00 | 0.00 | 0.00 | 86 | 1049.0 |
| 20260507063556 | 56 | 263 | 2.0 | 6.0 | 0.00 | 0.00 | 0.00 | 86 | 1048.8 |
| 20260507063548 | 56 | 264 | 2.0 | 6.0 | 0.00 | 0.00 | 0.00 | 86 | 1048.8 |
| 20260507063537 | 56 | 264 | 2.0 | 6.0 | 0.00 | 0.00 | 0.00 | 87 | 1048.8 |
| 20260507063240 | 56 | 263 | 2.0 | 6.0 | 0.00 | 0.00 | 0.00 | 87 | 1048.8 |
| 20260507063138 | 56 | 263 | 3.0 | 6.0 | 0.00 | 0.00 | 0.00 | 87 | 1048.8 |
| 20260507063038 | 56 | 263 | 3.0 | 6.0 | 0.00 | 0.00 | 0.00 | 87 | 1048.7 |
| 20260507062938 | 56 | 264 | 3.0 | 6.0 | 0.00 | 0.00 | 0.00 | 87 | 1048.7 |
| 20260507062818 | 55 | 263 | 3.0 | 6.0 | 0.00 | 0.00 | 0.00 | 87 | 1048.7 |
| 20260507062806 | 55 | 263 | 3.0 | 6.0 | 0.00 | 0.00 | 0.00 | 87 | 1048.7 |
| 20260507062756 | 55 | 263 | 3.0 | 7.0 | 0.00 | 0.00 | 0.00 | 88 | 1048.7 |
| 20260507062434 | 55 | 263 | 4.0 | 7.0 | 0.00 | 0.00 | 0.00 | 88 | 1048.7 |
| 20260507062319 | 55 | 263 | 4.0 | 7.0 | 0.00 | 0.00 | 0.00 | 88 | 1048.6 |
| 20260507062234 | 55 | 263 | 4.0 | 7.0 | 0.00 | 0.00 | 0.00 | 88 | 1048.7 |
| 20260507062132 | 55 | 263 | 4.0 | 7.0 | 0.00 | 0.00 | 0.00 | 89 | 1048.6 |
| 20260507062051 | 54 | 263 | 4.0 | 7.0 | 0.00 | 0.00 | 0.00 | 89 | 1048.6 |
| 20260507062046 | 54 | 263 | 3.0 | 7.0 | 0.00 | 0.00 | 0.00 | 89 | 1048.6 |
| 20260507062021 | 54 | 263 | 3.0 | 7.0 | 0.00 | 0.00 | 0.00 | 89 | 1048.6 |
| 20260507061755 | 54 | 262 | 3.0 | 7.0 | 0.00 | 0.00 | 0.00 | 90 | 1048.6 |
| 20260507061432 | 54 | 256 | 3.0 | 4.0 | 0.00 | 0.00 | 0.00 | 90 | 1048.5 |
| 20260507061331 | 54 | 257 | 3.0 | 4.0 | 0.00 | 0.00 | 0.00 | 90 | 1048.5 |
| 20260507061310 | 53 | 256 | 3.0 | 4.0 | 0.00 | 0.00 | 0.00 | 90 | 1048.5 |
| 20260507061231 | 53 | 256 | 3.0 | 4.0 | 0.00 | 0.00 | 0.00 | 90 | 1048.5 |
| 20260507061132 | 53 | 256 | 3.0 | 4.0 | 0.00 | 0.00 | 0.00 | 91 | 1048.5 |
| 20260507061031 | 53 | 256 | 3.0 | 4.0 | 0.00 | 0.00 | 0.00 | 91 | 1048.5 |
| 20260507060931 | 53 | 256 | 3.0 | 4.0 | 0.00 | 0.00 | 0.00 | 91 | 1048.5 |
| 20260507060855 | 53 | 256 | 3.0 | 4.0 | 0.00 | 0.00 | 0.00 | 91 | 1048.5 |
| 20260507060847 | 53 | 256 | 3.0 | 4.0 | 0.00 | 0.00 | 0.00 | 91 | 1048.5 |
| 20260507060836 | 53 | 256 | 3.0 | 4.0 | 0.00 | 0.00 | 0.00 | 91 | 1048.5 |
| 20260507060829 | 53 | 256 | 3.0 | 4.0 | 0.00 | 0.00 | 0.00 | 91 | 1048.4 |
| 20260507060600 | 52 | 256 | 3.0 | 4.0 | 0.00 | 0.00 | 0.00 | 91 | 1048.5 |
| 20260507060331 | 52 | 256 | 3.0 | 4.0 | 0.00 | 0.00 | 0.00 | 91 | 1048.5 |
| 20260507060320 | 52 | 256 | 2.0 | 4.0 | 0.00 | 0.00 | 0.00 | 91 | 1048.5 |
| 20260507060052 | 52 | 256 | 2.0 | 4.0 | 0.00 | 0.00 | 0.00 | 91 | 1048.5 |
| 20260507060032 | 52 | 256 | 2.0 | 4.0 | 0.00 | 0.00 | 0.00 | 91 | 1048.5 |
| 20260507055722 | 52 | 256 | 2.0 | 3.0 | 0.00 | 0.00 | 0.00 | 91 | 1048.5 |
| 20260507055655 | 51 | 256 | 2.0 | 3.0 | 0.00 | 0.00 | 0.00 | 92 | 1048.5 |
| 20260507055649 | 51 | 256 | 2.0 | 3.0 | 0.00 | 0.00 | 0.00 | 92 | 1048.5 |
| 20260507055314 | 51 | 256 | 2.0 | 6.0 | 0.00 | 0.00 | 0.00 | 92 | 1048.5 |
| 20260507055306 | 51 | 256 | 2.0 | 6.0 | 0.00 | 0.00 | 0.00 | 92 | 1048.5 |
| 20260507055256 | 51 | 256 | 2.0 | 6.0 | 0.00 | 0.00 | 0.00 | 92 | 1048.5 |
| 20260507054916 | 51 | 256 | 2.0 | 6.0 | 0.00 | 0.00 | 0.00 | 92 | 1048.5 |
| 20260507054808 | 51 | 256 | 2.0 | 6.0 | 0.00 | 0.00 | 0.00 | 92 | 1048.5 |
| 20260507054712 | 51 | 256 | 2.0 | 6.0 | 0.00 | 0.00 | 0.00 | 92 | 1048.5 |
| 20260507054610 | 51 | 256 | 3.0 | 6.0 | 0.00 | 0.00 | 0.00 | 92 | 1048.5 |
| 20260507054550 | 50 | 256 | 3.0 | 6.0 | 0.00 | 0.00 | 0.00 | 92 | 1048.5 |
| 20260507054541 | 50 | 256 | 3.0 | 6.0 | 0.00 | 0.00 | 0.00 | 92 | 1048.4 |
| 20260507054311 | 50 | 256 | 3.0 | 6.0 | 0.00 | 0.00 | 0.00 | 92 | 1048.4 |
| 20260507054206 | 50 | 256 | 3.0 | 6.0 | 0.00 | 0.00 | 0.00 | 92 | 1048.4 |
| 20260507054108 | 50 | 256 | 2.0 | 6.0 | 0.00 | 0.00 | 0.00 | 92 | 1048.4 |
| 20260507054054 | 50 | 256 | 2.0 | 6.0 | 0.00 | 0.00 | 0.00 | 92 | 1048.5 |
| 20260507054043 | 50 | 256 | 2.0 | 6.0 | 0.00 | 0.00 | 0.00 | 92 | 1048.5 |
| 20260507053807 | 50 | 256 | 2.0 | 6.0 | 0.00 | 0.00 | 0.00 | 92 | 1048.5 |
| 20260507053705 | 50 | 256 | 2.0 | 6.0 | 0.00 | 0.00 | 0.00 | 92 | 1048.4 |
| 20260507053605 | 50 | 256 | 2.0 | 6.0 | 0.00 | 0.00 | 0.00 | 92 | 1048.5 |
| 20260507053550 | 49 | 256 | 2.0 | 6.0 | 0.00 | 0.00 | 0.00 | 92 | 1048.5 |
| 20260507053538 | 49 | 256 | 2.0 | 5.0 | 0.00 | 0.00 | 0.00 | 92 | 1048.4 |
| 20260507053307 | 49 | 256 | 2.0 | 3.0 | 0.00 | 0.00 | 0.00 | 92 | 1048.4 |
| 20260507053205 | 49 | 256 | 2.0 | 3.0 | 0.00 | 0.00 | 0.00 | 92 | 1048.4 |
| 20260507053107 | 49 | 256 | 2.0 | 3.0 | 0.00 | 0.00 | 0.00 | 92 | 1048.4 |
| 20260507053005 | 49 | 256 | 2.0 | 3.0 | 0.00 | 0.00 | 0.00 | 92 | 1048.4 |
| 20260507052903 | 49 | 256 | 2.0 | 4.0 | 0.00 | 0.00 | 0.00 | 92 | 1048.4 |
| 20260507052817 | 49 | 256 | 2.0 | 6.0 | 0.00 | 0.00 | 0.00 | 92 | 1048.4 |
| 20260507052803 | 49 | 255 | 2.0 | 6.0 | 0.00 | 0.00 | 0.00 | 92 | 1048.4 |
| 20260507052702 | 49 | 256 | 2.0 | 6.0 | 0.00 | 0.00 | 0.00 | 92 | 1048.4 |
| 20260507052602 | 49 | 256 | 2.0 | 6.0 | 0.00 | 0.00 | 0.00 | 92 | 1048.4 |
| 20260507052542 | 49 | 255 | 2.0 | 6.0 | 0.00 | 0.00 | 0.00 | 92 | 1048.4 |
| 20260507052529 | 49 | 255 | 3.0 | 6.0 | 0.00 | 0.00 | 0.00 | 92 | 1048.4 |
| 20260507052517 | 49 | 256 | 3.0 | 6.0 | 0.00 | 0.00 | 0.00 | 92 | 1048.4 |
| 20260507052158 | 49 | 255 | 3.0 | 6.0 | 0.00 | 0.00 | 0.00 | 92 | 1048.4 |
| 20260507052059 | 49 | 255 | 3.0 | 6.0 | 0.00 | 0.00 | 0.00 | 92 | 1048.4 |
| 20260507051959 | 49 | 255 | 2.0 | 6.0 | 0.00 | 0.00 | 0.00 | 92 | 1048.4 |
| 20260507051859 | 48 | 255 | 2.0 | 6.0 | 0.00 | 0.00 | 0.00 | 92 | 1048.3 |
| 20260507051809 | 48 | 256 | 2.0 | 5.0 | 0.00 | 0.00 | 0.00 | 92 | 1048.3 |
| 20260507051756 | 48 | 255 | 2.0 | 5.0 | 0.00 | 0.00 | 0.00 | 92 | 1048.3 |
| 20260507051657 | 48 | 255 | 2.0 | 4.0 | 0.00 | 0.00 | 0.00 | 92 | 1048.3 |
| 20260507051558 | 48 | 255 | 2.0 | 4.0 | 0.00 | 0.00 | 0.00 | 92 | 1048.3 |
| 20260507051520 | 48 | 254 | 2.0 | 4.0 | 0.00 | 0.00 | 0.00 | 92 | 1048.4 |
| 20260507051513 | 48 | 253 | 2.0 | 5.0 | 0.00 | 0.00 | 0.00 | 92 | 1048.4 |
| 20260507051500 | 48 | 253 | 2.0 | 5.0 | 0.00 | 0.00 | 0.00 | 92 | 1048.3 |
| 20260507051449 | 48 | 253 | 2.0 | 5.0 | 0.00 | 0.00 | 0.00 | 92 | 1048.3 |
| 20260507051439 | 48 | 251 | 2.0 | 5.0 | 0.00 | 0.00 | 0.00 | 92 | 1048.4 |
| 20260507050857 | 48 | 251 | 2.0 | 5.0 | 0.00 | 0.00 | 0.00 | 92 | 1048.2 |
| 20260507050816 | 48 | 252 | 3.0 | 5.0 | 0.00 | 0.00 | 0.00 | 92 | 1048.2 |
| 20260507050757 | 48 | 251 | 3.0 | 5.0 | 0.00 | 0.00 | 0.00 | 92 | 1048.2 |
| 20260507050657 | 48 | 251 | 3.0 | 5.0 | 0.00 | 0.00 | 0.00 | 92 | 1048.2 |
| 20260507050557 | 48 | 251 | 2.0 | 5.0 | 0.00 | 0.00 | 0.00 | 92 | 1048.2 |
| 20260507050457 | 48 | 251 | 2.0 | 5.0 | 0.00 | 0.00 | 0.00 | 92 | 1048.2 |
| 20260507050357 | 48 | 251 | 2.0 | 5.0 | 0.00 | 0.00 | 0.00 | 92 | 1048.2 |
| 20260507050305 | 48 | 251 | 2.0 | 5.0 | 0.00 | 0.00 | 0.00 | 92 | 1048.2 |
| 20260507050253 | 48 | 251 | 2.0 | 5.0 | 0.00 | 0.00 | 0.00 | 92 | 1048.2 |
| 20260507050153 | 48 | 251 | 2.0 | 5.0 | 0.00 | 0.00 | 0.00 | 92 | 1048.2 |
| 20260507050053 | 48 | 251 | 2.0 | 5.0 | 0.00 | 0.00 | 0.00 | 92 | 1048.2 |
| 20260507045952 | 48 | 251 | 2.0 | 5.0 | 0.00 | 0.00 | 0.00 | 92 | 1048.2 |
| 20260507045834 | 48 | 251 | 2.0 | 5.0 | 0.00 | 0.00 | 0.00 | 92 | 1048.2 |
| 20260507045827 | 48 | 251 | 2.0 | 5.0 | 0.00 | 0.00 | 0.00 | 92 | 1048.2 |
| 20260507045816 | 48 | 251 | 3.0 | 5.0 | 0.00 | 0.00 | 0.00 | 92 | 1048.2 |
| 20260507045540 | 48 | 251 | 3.0 | 5.0 | 0.00 | 0.00 | 0.00 | 92 | 1048.2 |
| 20260507045527 | 48 | 251 | 3.0 | 5.0 | 0.00 | 0.00 | 0.00 | 92 | 1048.2 |
| 20260507045252 | 48 | 251 | 3.0 | 5.0 | 0.00 | 0.00 | 0.00 | 92 | 1048.1 |
| 20260507045152 | 48 | 251 | 3.0 | 5.0 | 0.00 | 0.00 | 0.00 | 92 | 1048.1 |
| 20260507045053 | 48 | 251 | 3.0 | 5.0 | 0.00 | 0.00 | 0.00 | 92 | 1048.1 |
| 20260507044953 | 48 | 251 | 3.0 | 5.0 | 0.00 | 0.00 | 0.00 | 92 | 1048.1 |
| 20260507044853 | 48 | 251 | 3.0 | 5.0 | 0.00 | 0.00 | 0.00 | 92 | 1048.2 |
| 20260507044806 | 48 | 251 | 3.0 | 5.0 | 0.00 | 0.00 | 0.00 | 92 | 1048.2 |
| 20260507044753 | 48 | 251 | 3.0 | 5.0 | 0.00 | 0.00 | 0.00 | 92 | 1048.2 |
| 20260507044653 | 48 | 251 | 3.0 | 5.0 | 0.00 | 0.00 | 0.00 | 92 | 1048.1 |
| 20260507044550 | 48 | 251 | 3.0 | 5.0 | 0.00 | 0.00 | 0.00 | 92 | 1048.2 |
| 20260507044520 | 48 | 251 | 3.0 | 5.0 | 0.00 | 0.00 | 0.00 | 92 | 1048.2 |
| 20260507044457 | 48 | 251 | 2.0 | 4.0 | 0.00 | 0.00 | 0.00 | 92 | 1048.2 |
| 20260507044450 | 48 | 251 | 2.0 | 4.0 | 0.00 | 0.00 | 0.00 | 92 | 1048.2 |
| 20260507044440 | 48 | 251 | 2.0 | 4.0 | 0.00 | 0.00 | 0.00 | 92 | 1048.2 |
| 20260507044429 | 48 | 251 | 2.0 | 3.0 | 0.00 | 0.00 | 0.00 | 92 | 1048.2 |
| 20260507044154 | 48 | 251 | 2.0 | 3.0 | 0.00 | 0.00 | 0.00 | 92 | 1048.2 |
| 20260507043928 | 48 | 251 | 2.0 | 3.0 | 0.00 | 0.00 | 0.00 | 92 | 1048.2 |
| 20260507043919 | 48 | 251 | 2.0 | 3.0 | 0.00 | 0.00 | 0.00 | 92 | 1048.2 |
| 20260507043908 | 48 | 251 | 2.0 | 3.0 | 0.00 | 0.00 | 0.00 | 92 | 1048.2 |
| 20260507043854 | 48 | 251 | 2.0 | 3.0 | 0.00 | 0.00 | 0.00 | 92 | 1048.2 |
| 20260507043624 | 48 | 251 | 2.0 | 4.0 | 0.00 | 0.00 | 0.00 | 92 | 1048.2 |
| 20260507043045 | 48 | 251 | 2.0 | 4.0 | 0.00 | 0.00 | 0.00 | 92 | 1048.2 |
| 20260507042945 | 48 | 251 | 2.0 | 4.0 | 0.00 | 0.00 | 0.00 | 92 | 1048.2 |
| 20260507042845 | 48 | 251 | 2.0 | 4.0 | 0.00 | 0.00 | 0.00 | 92 | 1048.2 |
| 20260507042805 | 48 | 251 | 2.0 | 4.0 | 0.00 | 0.00 | 0.00 | 92 | 1048.2 |
| 20260507042744 | 48 | 251 | 2.0 | 4.0 | 0.00 | 0.00 | 0.00 | 92 | 1048.2 |
| 20260507042708 | 48 | 251 | 2.0 | 4.0 | 0.00 | 0.00 | 0.00 | 92 | 1048.2 |
| 20260507042701 | 48 | 251 | 2.0 | 4.0 | 0.00 | 0.00 | 0.00 | 92 | 1048.2 |
| 20260507042649 | 48 | 251 | 2.0 | 4.0 | 0.00 | 0.00 | 0.00 | 92 | 1048.2 |
| 20260507042641 | 48 | 251 | 2.0 | 4.0 | 0.00 | 0.00 | 0.00 | 92 | 1048.2 |
| 20260507042409 | 48 | 251 | 2.0 | 4.0 | 0.00 | 0.00 | 0.00 | 92 | 1048.2 |
| 20260507042045 | 48 | 251 | 2.0 | 5.0 | 0.00 | 0.00 | 0.00 | 92 | 1048.2 |
| 20260507041945 | 48 | 251 | 2.0 | 5.0 | 0.00 | 0.00 | 0.00 | 92 | 1048.2 |
| 20260507041845 | 48 | 251 | 2.0 | 5.0 | 0.00 | 0.00 | 0.00 | 92 | 1048.3 |
| 20260507041804 | 48 | 251 | 2.0 | 5.0 | 0.00 | 0.00 | 0.00 | 92 | 1048.3 |
| 20260507041742 | 48 | 251 | 2.0 | 5.0 | 0.00 | 0.00 | 0.00 | 92 | 1048.2 |
| 20260507041641 | 48 | 251 | 2.0 | 5.0 | 0.00 | 0.00 | 0.00 | 92 | 1048.2 |
| 20260507041541 | 48 | 251 | 2.0 | 5.0 | 0.00 | 0.00 | 0.00 | 92 | 1048.2 |
| 20260507041441 | 48 | 251 | 2.0 | 5.0 | 0.00 | 0.00 | 0.00 | 92 | 1048.2 |
| 20260507041340 | 48 | 251 | 2.0 | 5.0 | 0.00 | 0.00 | 0.00 | 92 | 1048.2 |
| 20260507041304 | 48 | 251 | 2.0 | 5.0 | 0.00 | 0.00 | 0.00 | 92 | 1048.2 |
| 20260507041240 | 48 | 251 | 2.0 | 5.0 | 0.00 | 0.00 | 0.00 | 92 | 1048.3 |
| 20260507041141 | 48 | 251 | 2.0 | 4.0 | 0.00 | 0.00 | 0.00 | 92 | 1048.2 |
| 20260507041041 | 48 | 251 | 2.0 | 5.0 | 0.00 | 0.00 | 0.00 | 92 | 1048.2 |
| 20260507040941 | 48 | 251 | 2.0 | 5.0 | 0.00 | 0.00 | 0.00 | 92 | 1048.2 |
| 20260507040841 | 48 | 251 | 2.0 | 5.0 | 0.00 | 0.00 | 0.00 | 92 | 1048.2 |
| 20260507040803 | 48 | 251 | 2.0 | 5.0 | 0.00 | 0.00 | 0.00 | 92 | 1048.2 |
| 20260507040741 | 48 | 251 | 2.0 | 5.0 | 0.00 | 0.00 | 0.00 | 92 | 1048.2 |
| 20260507040641 | 48 | 251 | 2.0 | 5.0 | 0.00 | 0.00 | 0.00 | 92 | 1048.2 |
| 20260507040541 | 48 | 251 | 2.0 | 5.0 | 0.00 | 0.00 | 0.00 | 92 | 1048.2 |
| 20260507040441 | 48 | 251 | 2.0 | 5.0 | 0.00 | 0.00 | 0.00 | 92 | 1048.2 |
| 20260507040340 | 48 | 251 | 2.0 | 5.0 | 0.00 | 0.00 | 0.00 | 92 | 1048.2 |
| 20260507040322 | 48 | 251 | 3.0 | 5.0 | 0.00 | 0.00 | 0.00 | 92 | 1048.2 |
| 20260507040312 | 48 | 251 | 3.0 | 5.0 | 0.00 | 0.00 | 0.00 | 92 | 1048.2 |
| 20260507040304 | 48 | 251 | 3.0 | 5.0 | 0.00 | 0.00 | 0.00 | 92 | 1048.2 |
| 20260507040256 | 48 | 251 | 2.0 | 4.0 | 0.00 | 0.00 | 0.00 | 92 | 1048.2 |
| 20260507040247 | 48 | 251 | 2.0 | 4.0 | 0.00 | 0.00 | 0.00 | 92 | 1048.2 |
| 20260507035740 | 48 | 251 | 2.0 | 4.0 | 0.00 | 0.00 | 0.00 | 91 | 1048.2 |
| 20260507035640 | 48 | 251 | 2.0 | 4.0 | 0.00 | 0.00 | 0.00 | 91 | 1048.3 |
| 20260507035601 | 48 | 251 | 2.0 | 4.0 | 0.00 | 0.00 | 0.00 | 91 | 1048.2 |
| 20260507035550 | 48 | 251 | 2.0 | 4.0 | 0.00 | 0.00 | 0.00 | 91 | 1048.2 |
| 20260507035539 | 48 | 251 | 2.0 | 4.0 | 0.00 | 0.00 | 0.00 | 91 | 1048.2 |
| 20260507035310 | 48 | 251 | 2.0 | 4.0 | 0.00 | 0.00 | 0.00 | 91 | 1048.3 |
| 20260507035305 | 48 | 251 | 2.0 | 4.0 | 0.00 | 0.00 | 0.00 | 91 | 1048.3 |
| 20260507035249 | 48 | 251 | 3.0 | 4.0 | 0.00 | 0.00 | 0.00 | 91 | 1048.2 |
| 20260507035239 | 48 | 252 | 3.0 | 5.0 | 0.00 | 0.00 | 0.00 | 91 | 1048.2 |
| 20260507035231 | 48 | 251 | 3.0 | 5.0 | 0.00 | 0.00 | 0.00 | 91 | 1048.2 |
| 20260507034642 | 49 | 251 | 3.0 | 5.0 | 0.00 | 0.00 | 0.00 | 91 | 1048.3 |
| 20260507034541 | 49 | 251 | 3.0 | 5.0 | 0.00 | 0.00 | 0.00 | 91 | 1048.2 |
| 20260507034445 | 49 | 251 | 3.0 | 5.0 | 0.00 | 0.00 | 0.00 | 91 | 1048.3 |
| 20260507034341 | 49 | 251 | 3.0 | 5.0 | 0.00 | 0.00 | 0.00 | 91 | 1048.3 |
| 20260507034306 | 49 | 251 | 3.0 | 5.0 | 0.00 | 0.00 | 0.00 | 91 | 1048.3 |
| 20260507034243 | 49 | 251 | 3.0 | 5.0 | 0.00 | 0.00 | 0.00 | 91 | 1048.3 |
| 20260507034226 | 49 | 251 | 2.0 | 5.0 | 0.00 | 0.00 | 0.00 | 91 | 1048.3 |
| 20260507034215 | 49 | 251 | 2.0 | 5.0 | 0.00 | 0.00 | 0.00 | 91 | 1048.2 |
| 20260507033932 | 49 | 251 | 2.0 | 4.0 | 0.00 | 0.00 | 0.00 | 91 | 1048.3 |
| 20260507033925 | 49 | 251 | 2.0 | 4.0 | 0.00 | 0.00 | 0.00 | 91 | 1048.3 |
| 20260507033914 | 49 | 251 | 2.0 | 4.0 | 0.00 | 0.00 | 0.00 | 91 | 1048.2 |
| 20260507033905 | 49 | 251 | 2.0 | 4.0 | 0.00 | 0.00 | 0.00 | 91 | 1048.2 |
| 20260507033855 | 49 | 251 | 2.0 | 4.0 | 0.00 | 0.00 | 0.00 | 91 | 1048.3 |
| 20260507033843 | 49 | 251 | 2.0 | 4.0 | 0.00 | 0.00 | 0.00 | 91 | 1048.3 |
| 20260507033611 | 49 | 251 | 2.0 | 4.0 | 0.00 | 0.00 | 0.00 | 91 | 1048.2 |
| 20260507033341 | 49 | 251 | 3.0 | 4.0 | 0.00 | 0.00 | 0.00 | 91 | 1048.3 |
| 20260507033053 | 49 | 251 | 2.0 | 4.0 | 0.00 | 0.00 | 0.00 | 91 | 1048.3 |
| 20260507033046 | 49 | 251 | 2.0 | 4.0 | 0.00 | 0.00 | 0.00 | 91 | 1048.3 |
| 20260507033038 | 49 | 251 | 2.0 | 4.0 | 0.00 | 0.00 | 0.00 | 91 | 1048.3 |
| 20260507033029 | 49 | 251 | 2.0 | 4.0 | 0.00 | 0.00 | 0.00 | 91 | 1048.3 |
| 20260507032751 | 49 | 251 | 3.0 | 4.0 | 0.00 | 0.00 | 0.00 | 91 | 1048.4 |
| 20260507032258 | 49 | 251 | 2.0 | 4.0 | 0.00 | 0.00 | 0.00 | 91 | 1048.3 |
| 20260507031937 | 49 | 251 | 2.0 | 4.0 | 0.00 | 0.00 | 0.00 | 91 | 1048.4 |
| 20260507031836 | 49 | 251 | 2.0 | 4.0 | 0.00 | 0.00 | 0.00 | 91 | 1048.4 |
| 20260507031803 | 49 | 251 | 2.0 | 4.0 | 0.00 | 0.00 | 0.00 | 91 | 1048.4 |
| 20260507031740 | 49 | 251 | 2.0 | 4.0 | 0.00 | 0.00 | 0.00 | 91 | 1048.4 |
| 20260507031636 | 49 | 251 | 2.0 | 4.0 | 0.00 | 0.00 | 0.00 | 91 | 1048.4 |
| 20260507031536 | 49 | 251 | 2.0 | 4.0 | 0.00 | 0.00 | 0.00 | 91 | 1048.4 |
| 20260507031436 | 49 | 251 | 2.0 | 4.0 | 0.00 | 0.00 | 0.00 | 91 | 1048.4 |
| 20260507031337 | 49 | 251 | 2.0 | 4.0 | 0.00 | 0.00 | 0.00 | 91 | 1048.3 |
| 20260507031304 | 49 | 251 | 2.0 | 4.0 | 0.00 | 0.00 | 0.00 | 91 | 1048.3 |
| 20260507031237 | 49 | 251 | 2.0 | 4.0 | 0.00 | 0.00 | 0.00 | 91 | 1048.3 |
| 20260507031136 | 49 | 251 | 2.0 | 4.0 | 0.00 | 0.00 | 0.00 | 92 | 1048.4 |
| 20260507031033 | 49 | 251 | 2.0 | 4.0 | 0.00 | 0.00 | 0.00 | 92 | 1048.4 |
| 20260507031002 | 49 | 251 | 2.0 | 4.0 | 0.00 | 0.00 | 0.00 | 92 | 1048.3 |
| 20260507030943 | 49 | 251 | 2.0 | 4.0 | 0.00 | 0.00 | 0.00 | 92 | 1048.3 |
| 20260507030932 | 49 | 251 | 2.0 | 4.0 | 0.00 | 0.00 | 0.00 | 92 | 1048.3 |
| 20260507030924 | 49 | 251 | 2.0 | 4.0 | 0.00 | 0.00 | 0.00 | 92 | 1048.3 |
| 20260507030916 | 49 | 251 | 2.0 | 4.0 | 0.00 | 0.00 | 0.00 | 92 | 1048.3 |
| 20260507030427 | 49 | 251 | 2.0 | 4.0 | 0.00 | 0.00 | 0.00 | 92 | 1048.4 |
| 20260507030416 | 49 | 251 | 2.0 | 4.0 | 0.00 | 0.00 | 0.00 | 92 | 1048.4 |
| 20260507030404 | 49 | 251 | 2.0 | 4.0 | 0.00 | 0.00 | 0.00 | 92 | 1048.3 |
| 20260507030136 | 49 | 251 | 2.0 | 4.0 | 0.00 | 0.00 | 0.00 | 92 | 1048.4 |
| 20260507030117 | 49 | 251 | 2.0 | 4.0 | 0.00 | 0.00 | 0.00 | 92 | 1048.3 |
| 20260507025849 | 49 | 251 | 2.0 | 5.0 | 0.00 | 0.00 | 0.00 | 92 | 1048.4 |
| 20260507025840 | 49 | 251 | 3.0 | 5.0 | 0.00 | 0.00 | 0.00 | 92 | 1048.4 |
| 20260507025829 | 49 | 251 | 3.0 | 5.0 | 0.00 | 0.00 | 0.00 | 92 | 1048.3 |
| 20260507025601 | 49 | 252 | 3.0 | 5.0 | 0.00 | 0.00 | 0.00 | 92 | 1048.4 |
| 20260507025020 | 49 | 251 | 3.0 | 5.0 | 0.00 | 0.00 | 0.00 | 92 | 1048.3 |
| 20260507024915 | 49 | 251 | 3.0 | 5.0 | 0.00 | 0.00 | 0.00 | 92 | 1048.4 |
| 20260507024805 | 49 | 251 | 3.0 | 7.0 | 0.00 | 0.00 | 0.00 | 92 | 1048.4 |
| 20260507024715 | 49 | 251 | 3.0 | 7.0 | 0.00 | 0.00 | 0.00 | 92 | 1048.4 |
| 20260507024615 | 49 | 251 | 3.0 | 7.0 | 0.00 | 0.00 | 0.00 | 92 | 1048.4 |
| 20260507024515 | 48 | 251 | 3.0 | 7.0 | 0.00 | 0.00 | 0.00 | 92 | 1048.4 |
| 20260507024414 | 48 | 251 | 3.0 | 7.0 | 0.00 | 0.00 | 0.00 | 92 | 1048.3 |
| 20260507024305 | 48 | 251 | 3.0 | 7.0 | 0.00 | 0.00 | 0.00 | 92 | 1048.3 |
| 20260507024212 | 48 | 251 | 3.0 | 7.0 | 0.00 | 0.00 | 0.00 | 92 | 1048.3 |
| 20260507024112 | 48 | 251 | 3.0 | 7.0 | 0.00 | 0.00 | 0.00 | 92 | 1048.3 |
| 20260507024011 | 48 | 251 | 3.0 | 7.0 | 0.00 | 0.00 | 0.00 | 92 | 1048.3 |
| 20260507023911 | 48 | 251 | 4.0 | 7.0 | 0.00 | 0.00 | 0.00 | 92 | 1048.3 |
| 20260507023818 | 48 | 251 | 3.0 | 7.0 | 0.00 | 0.00 | 0.00 | 92 | 1048.3 |
| 20260507023809 | 48 | 250 | 3.0 | 7.0 | 0.00 | 0.00 | 0.00 | 92 | 1048.3 |
| 20260507023745 | 48 | 250 | 3.0 | 7.0 | 0.00 | 0.00 | 0.00 | 92 | 1048.3 |
| 20260507023739 | 48 | 251 | 3.0 | 7.0 | 0.00 | 0.00 | 0.00 | 92 | 1048.3 |
| 20260507023408 | 48 | 250 | 3.0 | 7.0 | 0.00 | 0.00 | 0.00 | 92 | 1048.3 |
| 20260507023305 | 48 | 249 | 3.0 | 7.0 | 0.00 | 0.00 | 0.00 | 92 | 1048.3 |
| 20260507023209 | 48 | 245 | 3.0 | 7.0 | 0.00 | 0.00 | 0.00 | 92 | 1048.2 |
| 20260507023108 | 48 | 245 | 3.0 | 5.0 | 0.00 | 0.00 | 0.00 | 92 | 1048.2 |
| 20260507023008 | 48 | 245 | 3.0 | 5.0 | 0.00 | 0.00 | 0.00 | 91 | 1048.2 |
| 20260507022908 | 48 | 245 | 3.0 | 5.0 | 0.00 | 0.00 | 0.00 | 91 | 1048.2 |
| 20260507022805 | 48 | 245 | 3.0 | 5.0 | 0.00 | 0.00 | 0.00 | 91 | 1048.2 |
| 20260507022708 | 48 | 245 | 3.0 | 5.0 | 0.00 | 0.00 | 0.00 | 92 | 1048.2 |
| 20260507022641 | 48 | 244 | 3.0 | 5.0 | 0.00 | 0.00 | 0.00 | 92 | 1048.2 |
| 20260507022632 | 48 | 244 | 3.0 | 5.0 | 0.00 | 0.00 | 0.00 | 92 | 1048.1 |
| 20260507022307 | 48 | 244 | 3.0 | 5.0 | 0.00 | 0.00 | 0.00 | 92 | 1048.1 |
| 20260507022209 | 48 | 244 | 3.0 | 5.0 | 0.00 | 0.00 | 0.00 | 91 | 1048.2 |
| 20260507022106 | 48 | 244 | 3.0 | 5.0 | 0.00 | 0.00 | 0.00 | 92 | 1048.1 |
| 20260507022006 | 48 | 244 | 3.0 | 5.0 | 0.00 | 0.00 | 0.00 | 91 | 1048.1 |
| 20260507021905 | 48 | 244 | 3.0 | 5.0 | 0.00 | 0.00 | 0.00 | 91 | 1048.2 |
| 20260507021805 | 48 | 244 | 3.0 | 5.0 | 0.00 | 0.00 | 0.00 | 91 | 1048.1 |
| 20260507021705 | 48 | 243 | 3.0 | 5.0 | 0.00 | 0.00 | 0.00 | 91 | 1048.1 |
| 20260507021607 | 48 | 244 | 3.0 | 5.0 | 0.00 | 0.00 | 0.00 | 91 | 1048.1 |
| 20260507021504 | 48 | 244 | 3.0 | 5.0 | 0.00 | 0.00 | 0.00 | 91 | 1048.1 |
| 20260507021445 | 48 | 244 | 2.0 | 5.0 | 0.00 | 0.00 | 0.00 | 91 | 1048.1 |
| 20260507021435 | 48 | 244 | 2.0 | 5.0 | 0.00 | 0.00 | 0.00 | 91 | 1048.1 |
| 20260507021427 | 48 | 243 | 2.0 | 5.0 | 0.00 | 0.00 | 0.00 | 91 | 1048.1 |
| 20260507021105 | 48 | 243 | 2.0 | 5.0 | 0.00 | 0.00 | 0.00 | 91 | 1048.2 |
| 20260507021005 | 48 | 243 | 2.0 | 5.0 | 0.00 | 0.00 | 0.00 | 91 | 1048.1 |
| 20260507020904 | 48 | 243 | 2.0 | 5.0 | 0.00 | 0.00 | 0.00 | 91 | 1048.1 |
| 20260507020809 | 48 | 243 | 2.0 | 4.0 | 0.00 | 0.00 | 0.00 | 91 | 1048.1 |
| 20260507020704 | 48 | 243 | 2.0 | 4.0 | 0.00 | 0.00 | 0.00 | 91 | 1048.1 |
| 20260507020604 | 48 | 244 | 2.0 | 4.0 | 0.00 | 0.00 | 0.00 | 91 | 1048.2 |
| 20260507020506 | 48 | 243 | 2.0 | 4.0 | 0.00 | 0.00 | 0.00 | 91 | 1048.1 |
| 20260507020405 | 48 | 245 | 2.0 | 4.0 | 0.00 | 0.00 | 0.00 | 91 | 1048.2 |
| 20260507020346 | 48 | 244 | 2.0 | 4.0 | 0.00 | 0.00 | 0.00 | 91 | 1048.2 |
| 20260507020336 | 48 | 243 | 2.0 | 4.0 | 0.00 | 0.00 | 0.00 | 91 | 1048.2 |
| 20260507020323 | 48 | 243 | 2.0 | 4.0 | 0.00 | 0.00 | 0.00 | 91 | 1048.2 |
| 20260507020054 | 48 | 243 | 3.0 | 4.0 | 0.00 | 0.00 | 0.00 | 91 | 1048.2 |
| 20260507020039 | 48 | 244 | 3.0 | 4.0 | 0.00 | 0.00 | 0.00 | 91 | 1048.2 |
| 20260507015809 | 48 | 243 | 3.0 | 7.0 | 0.00 | 0.00 | 0.00 | 91 | 1048.3 |
| 20260507015803 | 48 | 244 | 3.0 | 7.0 | 0.00 | 0.00 | 0.00 | 91 | 1048.3 |
| 20260507015752 | 48 | 243 | 3.0 | 7.0 | 0.00 | 0.00 | 0.00 | 91 | 1048.3 |
| 20260507015746 | 48 | 243 | 3.0 | 7.0 | 0.00 | 0.00 | 0.00 | 91 | 1048.3 |
| 20260507015239 | 48 | 244 | 3.0 | 7.0 | 0.00 | 0.00 | 0.00 | 91 | 1048.3 |
| 20260507015224 | 48 | 243 | 3.0 | 7.0 | 0.00 | 0.00 | 0.00 | 91 | 1048.3 |
| 20260507014904 | 48 | 244 | 3.0 | 7.0 | 0.00 | 0.00 | 0.00 | 91 | 1048.3 |
| 20260507014806 | 48 | 243 | 3.0 | 7.0 | 0.00 | 0.00 | 0.00 | 91 | 1048.3 |
| 20260507014703 | 48 | 243 | 3.0 | 7.0 | 0.00 | 0.00 | 0.00 | 91 | 1048.3 |
| 20260507014625 | 48 | 243 | 3.0 | 7.0 | 0.00 | 0.00 | 0.00 | 91 | 1048.4 |
| 20260507014619 | 48 | 243 | 3.0 | 7.0 | 0.00 | 0.00 | 0.00 | 91 | 1048.4 |
| 20260507014606 | 48 | 243 | 3.0 | 7.0 | 0.00 | 0.00 | 0.00 | 91 | 1048.3 |
| 20260507014550 | 48 | 243 | 3.0 | 7.0 | 0.00 | 0.00 | 0.00 | 91 | 1048.4 |
| 20260507014004 | 48 | 243 | 3.0 | 5.0 | 0.00 | 0.00 | 0.00 | 91 | 1048.4 |
| 20260507013946 | 48 | 243 | 3.0 | 5.0 | 0.00 | 0.00 | 0.00 | 91 | 1048.4 |
| 20260507013930 | 48 | 243 | 3.0 | 5.0 | 0.00 | 0.00 | 0.00 | 91 | 1048.4 |
| 20260507013604 | 48 | 243 | 3.0 | 5.0 | 0.00 | 0.00 | 0.00 | 91 | 1048.4 |
| 20260507013503 | 48 | 243 | 3.0 | 5.0 | 0.00 | 0.00 | 0.00 | 91 | 1048.4 |
| 20260507013340 | 48 | 243 | 3.0 | 5.0 | 0.00 | 0.00 | 0.00 | 91 | 1048.4 |
| 20260507013334 | 48 | 243 | 3.0 | 5.0 | 0.00 | 0.00 | 0.00 | 91 | 1048.4 |
| 20260507013323 | 48 | 242 | 3.0 | 5.0 | 0.00 | 0.00 | 0.00 | 91 | 1048.3 |
| 20260507013000 | 48 | 242 | 3.0 | 5.0 | 0.00 | 0.00 | 0.00 | 91 | 1048.4 |
| 20260507012854 | 48 | 241 | 3.0 | 5.0 | 0.00 | 0.00 | 0.00 | 91 | 1048.4 |
| 20260507012805 | 48 | 242 | 3.0 | 5.0 | 0.00 | 0.00 | 0.00 | 91 | 1048.4 |
| 20260507012754 | 48 | 242 | 3.0 | 5.0 | 0.00 | 0.00 | 0.00 | 91 | 1048.4 |
| 20260507012653 | 48 | 241 | 3.0 | 4.0 | 0.00 | 0.00 | 0.00 | 91 | 1048.4 |
| 20260507012555 | 48 | 242 | 2.0 | 4.0 | 0.00 | 0.00 | 0.00 | 91 | 1048.4 |
| 20260507012547 | 48 | 242 | 2.0 | 4.0 | 0.00 | 0.00 | 0.00 | 91 | 1048.4 |
| 20260507012531 | 48 | 242 | 2.0 | 4.0 | 0.00 | 0.00 | 0.00 | 91 | 1048.4 |
| 20260507012306 | 48 | 242 | 2.0 | 4.0 | 0.00 | 0.00 | 0.00 | 91 | 1048.4 |
| 20260507012256 | 48 | 241 | 2.0 | 7.0 | 0.00 | 0.00 | 0.00 | 91 | 1048.4 |
| 20260507012245 | 48 | 242 | 2.0 | 7.0 | 0.00 | 0.00 | 0.00 | 91 | 1048.3 |
| 20260507012002 | 48 | 242 | 3.0 | 7.0 | 0.00 | 0.00 | 0.00 | 91 | 1048.3 |
| 20260507011650 | 48 | 241 | 3.0 | 7.0 | 0.00 | 0.00 | 0.00 | 91 | 1048.3 |
| 20260507011544 | 48 | 242 | 3.0 | 7.0 | 0.00 | 0.00 | 0.00 | 91 | 1048.3 |
| 20260507011526 | 48 | 241 | 3.0 | 7.0 | 0.00 | 0.00 | 0.00 | 91 | 1048.3 |
| 20260507011518 | 48 | 241 | 3.0 | 7.0 | 0.00 | 0.00 | 0.00 | 91 | 1048.3 |
| 20260507011506 | 48 | 241 | 3.0 | 7.0 | 0.00 | 0.00 | 0.00 | 91 | 1048.3 |
| 20260507011021 | 48 | 241 | 3.0 | 5.0 | 0.00 | 0.00 | 0.00 | 91 | 1048.3 |
| 20260507011006 | 48 | 241 | 3.0 | 5.0 | 0.00 | 0.00 | 0.00 | 91 | 1048.3 |
| 20260507010642 | 48 | 241 | 3.0 | 5.0 | 0.00 | 0.00 | 0.00 | 91 | 1048.3 |
| 20260507010542 | 48 | 241 | 3.0 | 5.0 | 0.00 | 0.00 | 0.00 | 91 | 1048.3 |
| 20260507010534 | 48 | 241 | 3.0 | 4.0 | 0.00 | 0.00 | 0.00 | 91 | 1048.3 |
| 20260507010526 | 48 | 241 | 3.0 | 5.0 | 0.00 | 0.00 | 0.00 | 91 | 1048.3 |
| 20260507010515 | 48 | 241 | 3.0 | 5.0 | 0.00 | 0.00 | 0.00 | 91 | 1048.3 |
| 20260507010507 | 48 | 241 | 3.0 | 5.0 | 0.00 | 0.00 | 0.00 | 91 | 1048.4 |
| 20260507010456 | 48 | 241 | 3.0 | 5.0 | 0.00 | 0.00 | 0.00 | 91 | 1048.4 |
| 20260507010228 | 48 | 241 | 3.0 | 5.0 | 0.00 | 0.00 | 0.00 | 91 | 1048.4 |
| 20260507010221 | 48 | 241 | 3.0 | 5.0 | 0.00 | 0.00 | 0.00 | 91 | 1048.4 |
| 20260507005632 | 48 | 241 | 2.0 | 5.0 | 0.00 | 0.00 | 0.00 | 91 | 1048.5 |
| 20260507005532 | 48 | 241 | 2.0 | 5.0 | 0.00 | 0.00 | 0.00 | 91 | 1048.5 |
| 20260507005431 | 49 | 240 | 2.0 | 5.0 | 0.00 | 0.00 | 0.00 | 91 | 1048.4 |
| 20260507005333 | 49 | 241 | 2.0 | 4.0 | 0.00 | 0.00 | 0.00 | 91 | 1048.5 |
| 20260507005231 | 49 | 240 | 2.0 | 4.0 | 0.00 | 0.00 | 0.00 | 91 | 1048.5 |
| 20260507005133 | 49 | 240 | 2.0 | 4.0 | 0.00 | 0.00 | 0.00 | 91 | 1048.5 |
| 20260507005032 | 49 | 241 | 2.0 | 4.0 | 0.00 | 0.00 | 0.00 | 91 | 1048.5 |
| 20260507004931 | 49 | 240 | 2.0 | 4.0 | 0.00 | 0.00 | 0.00 | 91 | 1048.5 |
| 20260507004832 | 49 | 240 | 2.0 | 4.0 | 0.00 | 0.00 | 0.00 | 91 | 1048.5 |
| 20260507004732 | 49 | 240 | 2.0 | 4.0 | 0.00 | 0.00 | 0.00 | 91 | 1048.5 |
| 20260507004641 | 49 | 241 | 2.0 | 4.0 | 0.00 | 0.00 | 0.00 | 91 | 1048.5 |
| 20260507004619 | 49 | 240 | 2.0 | 4.0 | 0.00 | 0.00 | 0.00 | 91 | 1048.6 |
| 20260507004612 | 49 | 241 | 2.0 | 4.0 | 0.00 | 0.00 | 0.00 | 91 | 1048.6 |
| 20260507004603 | 49 | 240 | 2.0 | 4.0 | 0.00 | 0.00 | 0.00 | 91 | 1048.6 |
| 20260507004542 | 49 | 240 | 2.0 | 5.0 | 0.00 | 0.00 | 0.00 | 91 | 1048.6 |
| 20260507004532 | 49 | 241 | 2.0 | 5.0 | 0.00 | 0.00 | 0.00 | 91 | 1048.6 |
| 20260507004526 | 49 | 241 | 2.0 | 5.0 | 0.00 | 0.00 | 0.00 | 91 | 1048.6 |
| 20260507004516 | 49 | 240 | 2.0 | 5.0 | 0.00 | 0.00 | 0.00 | 91 | 1048.6 |
| 20260507004508 | 49 | 241 | 2.0 | 5.0 | 0.00 | 0.00 | 0.00 | 91 | 1048.6 |
| 20260507004236 | 49 | 241 | 2.0 | 5.0 | 0.00 | 0.00 | 0.00 | 91 | 1048.6 |
| 20260507004225 | 49 | 241 | 2.0 | 5.0 | 0.00 | 0.00 | 0.00 | 91 | 1048.6 |
| 20260507004208 | 49 | 241 | 2.0 | 5.0 | 0.00 | 0.00 | 0.00 | 91 | 1048.6 |
| 20260507004201 | 49 | 240 | 3.0 | 5.0 | 0.00 | 0.00 | 0.00 | 91 | 1048.6 |
| 20260507003933 | 49 | 239 | 2.0 | 5.0 | 0.00 | 0.00 | 0.00 | 91 | 1048.6 |
| 20260507003006 | 49 | 239 | 3.0 | 5.0 | 0.00 | 0.00 | 0.00 | 91 | 1048.6 |
| 20260507002953 | 49 | 239 | 3.0 | 5.0 | 0.00 | 0.00 | 0.00 | 91 | 1048.6 |
| 20260507002632 | 49 | 239 | 3.0 | 5.0 | 0.00 | 0.00 | 0.00 | 91 | 1048.6 |
| 20260507002532 | 49 | 240 | 3.0 | 4.0 | 0.00 | 0.00 | 0.00 | 90 | 1048.6 |
| 20260507002510 | 49 | 239 | 3.0 | 4.0 | 0.00 | 0.00 | 0.00 | 90 | 1048.6 |
| 20260507002501 | 49 | 240 | 3.0 | 4.0 | 0.00 | 0.00 | 0.00 | 90 | 1048.6 |
| 20260507002451 | 49 | 240 | 3.0 | 4.0 | 0.00 | 0.00 | 0.00 | 91 | 1048.6 |
| 20260507002131 | 49 | 240 | 3.0 | 4.0 | 0.00 | 0.00 | 0.00 | 91 | 1048.6 |
| 20260507002036 | 49 | 239 | 2.0 | 4.0 | 0.00 | 0.00 | 0.00 | 91 | 1048.6 |
| 20260507001931 | 49 | 239 | 2.0 | 4.0 | 0.00 | 0.00 | 0.00 | 91 | 1048.6 |
| 20260507001837 | 49 | 240 | 2.0 | 4.0 | 0.00 | 0.00 | 0.00 | 91 | 1048.6 |
| 20260507001823 | 49 | 239 | 2.0 | 4.0 | 0.00 | 0.00 | 0.00 | 91 | 1048.6 |
| 20260507001816 | 49 | 240 | 2.0 | 4.0 | 0.00 | 0.00 | 0.00 | 91 | 1048.6 |
| 20260507001808 | 49 | 241 | 1.0 | 4.0 | 0.00 | 0.00 | 0.00 | 91 | 1048.6 |
| 20260507001432 | 49 | 239 | 1.0 | 4.0 | 0.00 | 0.00 | 0.00 | 91 | 1048.7 |
| 20260507001331 | 49 | 239 | 1.0 | 4.0 | 0.00 | 0.00 | 0.00 | 91 | 1048.7 |
| 20260507001250 | 49 | 239 | 1.0 | 4.0 | 0.00 | 0.00 | 0.00 | 91 | 1048.7 |
| 20260507001230 | 49 | 240 | 1.0 | 4.0 | 0.00 | 0.00 | 0.00 | 91 | 1048.7 |
| 20260507001129 | 49 | 239 | 1.0 | 3.0 | 0.00 | 0.00 | 0.00 | 91 | 1048.7 |
| 20260507001053 | 49 | 239 | 1.0 | 3.0 | 0.00 | 0.00 | 0.00 | 91 | 1048.7 |
| 20260507001044 | 49 | 240 | 1.0 | 4.0 | 0.00 | 0.00 | 0.00 | 91 | 1048.7 |
| 20260507001033 | 49 | 239 | 2.0 | 4.0 | 0.00 | 0.00 | 0.00 | 91 | 1048.7 |
| 20260507001018 | 49 | 240 | 2.0 | 5.0 | 0.00 | 0.00 | 0.00 | 91 | 1048.7 |
| 20260507000754 | 49 | 239 | 2.0 | 5.0 | 0.00 | 0.00 | 0.00 | 91 | 1048.7 |
| 20260507000428 | 49 | 242 | 3.0 | 5.0 | 0.00 | 0.00 | 0.00 | 91 | 1048.7 |
| 20260507000329 | 49 | 239 | 3.0 | 5.0 | 0.00 | 0.00 | 0.00 | 91 | 1048.6 |
| 20260507000309 | 49 | 239 | 3.0 | 5.0 | 0.00 | 0.00 | 0.00 | 91 | 1048.6 |
| 20260507000302 | 49 | 240 | 3.0 | 5.0 | 0.00 | 0.00 | 0.00 | 91 | 1048.6 |
| 20260507000251 | 49 | 240 | 3.0 | 5.0 | 0.00 | 0.00 | 0.00 | 91 | 1048.7 |
| 20260506235940 | 49 | 239 | 3.0 | 5.0 | 0.00 | 0.00 | 0.00 | 91 | 1048.6 |
| 20260506235933 | 49 | 239 | 2.0 | 5.0 | 0.00 | 0.00 | 0.00 | 91 | 1048.7 |
| 20260506235923 | 49 | 240 | 2.0 | 4.0 | 0.00 | 0.00 | 0.00 | 91 | 1048.6 |
| 20260506235910 | 49 | 239 | 2.0 | 4.0 | 0.00 | 0.00 | 0.00 | 91 | 1048.6 |
| 20260506235901 | 49 | 239 | 2.0 | 4.0 | 0.00 | 0.00 | 0.00 | 91 | 1048.7 |
| 20260506235319 | 49 | 239 | 2.0 | 4.0 | 0.00 | 0.00 | 0.00 | 91 | 1048.7 |
| 20260506235219 | 49 | 239 | 2.0 | 4.0 | 0.00 | 0.00 | 0.00 | 91 | 1048.7 |
| 20260506235119 | 49 | 239 | 2.0 | 4.0 | 0.00 | 0.00 | 0.00 | 91 | 1048.7 |
| 20260506235019 | 49 | 240 | 2.0 | 4.0 | 0.00 | 0.00 | 0.00 | 91 | 1048.7 |
| 20260506235012 | 49 | 239 | 2.0 | 4.0 | 0.00 | 0.00 | 0.00 | 91 | 1048.7 |
| 20260506234956 | 49 | 240 | 2.0 | 4.0 | 0.00 | 0.00 | 0.00 | 91 | 1048.7 |
| 20260506234709 | 49 | 239 | 2.0 | 4.0 | 0.00 | 0.00 | 0.00 | 91 | 1048.7 |
| 20260506234609 | 49 | 239 | 2.0 | 4.0 | 0.00 | 0.00 | 0.00 | 91 | 1048.7 |
| 20260506234550 | 49 | 239 | 2.0 | 4.0 | 0.00 | 0.00 | 0.00 | 91 | 1048.7 |
| 20260506234542 | 49 | 240 | 2.0 | 4.0 | 0.00 | 0.00 | 0.00 | 91 | 1048.7 |
| 20260506234529 | 49 | 239 | 2.0 | 3.0 | 0.00 | 0.00 | 0.00 | 91 | 1048.7 |
| 20260506234505 | 49 | 239 | 2.0 | 3.0 | 0.00 | 0.00 | 0.00 | 91 | 1048.7 |
| 20260506234237 | 49 | 239 | 2.0 | 3.0 | 0.00 | 0.00 | 0.00 | 91 | 1048.7 |
| 20260506234229 | 49 | 240 | 2.0 | 3.0 | 0.00 | 0.00 | 0.00 | 91 | 1048.7 |
| 20260506234001 | 49 | 239 | 2.0 | 3.0 | 0.00 | 0.00 | 0.00 | 91 | 1048.7 |
| 20260506233706 | 49 | 239 | 2.0 | 3.0 | 0.00 | 0.00 | 0.00 | 91 | 1048.7 |
| 20260506233607 | 49 | 239 | 2.0 | 3.0 | 0.00 | 0.00 | 0.00 | 91 | 1048.8 |
| 20260506233505 | 49 | 239 | 2.0 | 4.0 | 0.00 | 0.00 | 0.00 | 91 | 1048.7 |
| 20260506233406 | 49 | 239 | 2.0 | 4.0 | 0.00 | 0.00 | 0.00 | 91 | 1048.7 |
| 20260506233305 | 49 | 239 | 3.0 | 4.0 | 0.00 | 0.00 | 0.00 | 91 | 1048.7 |
| 20260506233236 | 49 | 239 | 3.0 | 4.0 | 0.00 | 0.00 | 0.00 | 91 | 1048.7 |
| 20260506233205 | 49 | 239 | 3.0 | 4.0 | 0.00 | 0.00 | 0.00 | 91 | 1048.7 |
| 20260506233106 | 49 | 239 | 3.0 | 4.0 | 0.00 | 0.00 | 0.00 | 91 | 1048.7 |
| 20260506233053 | 49 | 239 | 3.0 | 4.0 | 0.00 | 0.00 | 0.00 | 90 | 1048.7 |
| 20260506233044 | 49 | 239 | 3.0 | 4.0 | 0.00 | 0.00 | 0.00 | 90 | 1048.7 |
| 20260506233037 | 49 | 239 | 3.0 | 4.0 | 0.00 | 0.00 | 0.00 | 90 | 1048.7 |
| 20260506233017 | 49 | 239 | 3.0 | 4.0 | 0.00 | 0.00 | 0.00 | 90 | 1048.8 |
| 20260506232740 | 49 | 239 | 2.0 | 4.0 | 0.00 | 0.00 | 0.00 | 90 | 1048.8 |
| 20260506232235 | 49 | 239 | 2.0 | 4.0 | 0.00 | 0.00 | 0.00 | 90 | 1048.8 |
| 20260506232203 | 49 | 239 | 2.0 | 4.0 | 0.00 | 0.00 | 0.00 | 90 | 1048.8 |
| 20260506232105 | 49 | 239 | 2.0 | 4.0 | 0.00 | 0.00 | 0.00 | 90 | 1048.8 |
| 20260506232037 | 49 | 239 | 2.0 | 4.0 | 0.00 | 0.00 | 0.00 | 90 | 1048.8 |
| 20260506232030 | 49 | 239 | 2.0 | 4.0 | 0.00 | 0.00 | 0.00 | 90 | 1048.8 |
| 20260506231736 | 49 | 239 | 2.0 | 4.0 | 0.00 | 0.00 | 0.00 | 90 | 1048.8 |
| 20260506231704 | 49 | 239 | 2.0 | 4.0 | 0.00 | 0.00 | 0.00 | 90 | 1048.8 |
| 20260506231604 | 49 | 239 | 2.0 | 4.0 | 0.00 | 0.00 | 0.00 | 90 | 1048.8 |
| 20260506231508 | 49 | 239 | 3.0 | 4.0 | 0.00 | 0.00 | 0.00 | 90 | 1048.8 |
| 20260506231444 | 49 | 239 | 3.0 | 4.0 | 0.00 | 0.00 | 0.00 | 90 | 1048.8 |
| 20260506231422 | 49 | 239 | 3.0 | 4.0 | 0.00 | 0.00 | 0.00 | 90 | 1048.8 |
| 20260506231100 | 49 | 239 | 3.0 | 4.0 | 0.00 | 0.00 | 0.00 | 91 | 1048.8 |
| 20260506230959 | 49 | 240 | 3.0 | 4.0 | 0.00 | 0.00 | 0.00 | 90 | 1048.8 |
| 20260506230854 | 49 | 239 | 3.0 | 4.0 | 0.00 | 0.00 | 0.00 | 90 | 1048.8 |
| 20260506230802 | 49 | 239 | 3.0 | 4.0 | 0.00 | 0.00 | 0.00 | 90 | 1048.8 |
| 20260506230751 | 49 | 239 | 3.0 | 4.0 | 0.00 | 0.00 | 0.00 | 90 | 1048.8 |
| 20260506230738 | 49 | 240 | 3.0 | 4.0 | 0.00 | 0.00 | 0.00 | 90 | 1048.8 |
| 20260506230512 | 49 | 239 | 3.0 | 4.0 | 0.00 | 0.00 | 0.00 | 90 | 1048.7 |
| 20260506230236 | 50 | 239 | 3.0 | 4.0 | 0.00 | 0.00 | 0.00 | 90 | 1048.7 |
| 20260506230148 | 49 | 239 | 3.0 | 4.0 | 0.00 | 0.00 | 0.00 | 90 | 1048.7 |
| 20260506230049 | 49 | 239 | 3.0 | 4.0 | 0.00 | 0.00 | 0.00 | 90 | 1048.7 |
| 20260506225950 | 49 | 239 | 3.0 | 4.0 | 0.00 | 0.00 | 0.00 | 90 | 1048.7 |
| 20260506225841 | 49 | 239 | 3.0 | 4.0 | 0.00 | 0.00 | 0.00 | 90 | 1048.8 |
| 20260506225736 | 49 | 239 | 3.0 | 4.0 | 0.00 | 0.00 | 0.00 | 90 | 1048.7 |
| 20260506225641 | 49 | 239 | 3.0 | 4.0 | 0.00 | 0.00 | 0.00 | 90 | 1048.7 |
| 20260506225541 | 49 | 239 | 3.0 | 4.0 | 0.00 | 0.00 | 0.00 | 90 | 1048.7 |
| 20260506225451 | 49 | 239 | 3.0 | 4.0 | 0.00 | 0.00 | 0.00 | 90 | 1048.7 |
| 20260506225443 | 49 | 239 | 3.0 | 4.0 | 0.00 | 0.00 | 0.00 | 90 | 1048.7 |
| 20260506225425 | 49 | 239 | 3.0 | 4.0 | 0.00 | 0.00 | 0.00 | 90 | 1048.7 |
| 20260506225157 | 49 | 239 | 3.0 | 4.0 | 0.00 | 0.00 | 0.00 | 90 | 1048.7 |
| 20260506224834 | 49 | 239 | 3.0 | 4.0 | 0.00 | 0.00 | 0.00 | 90 | 1048.7 |
| 20260506224735 | 49 | 239 | 3.0 | 4.0 | 0.00 | 0.00 | 0.00 | 90 | 1048.7 |
| 20260506224631 | 49 | 239 | 3.0 | 4.0 | 0.00 | 0.00 | 0.00 | 90 | 1048.7 |
| 20260506224531 | 49 | 239 | 3.0 | 4.0 | 0.00 | 0.00 | 0.00 | 90 | 1048.7 |
| 20260506224441 | 49 | 239 | 3.0 | 4.0 | 0.00 | 0.00 | 0.00 | 90 | 1048.7 |
| 20260506224331 | 49 | 239 | 3.0 | 4.0 | 0.00 | 0.00 | 0.00 | 90 | 1048.7 |
| 20260506224234 | 49 | 239 | 3.0 | 4.0 | 0.00 | 0.00 | 0.00 | 90 | 1048.7 |
| 20260506224131 | 49 | 239 | 3.0 | 4.0 | 0.00 | 0.00 | 0.00 | 90 | 1048.6 |
| 20260506224103 | 49 | 239 | 3.0 | 4.0 | 0.00 | 0.00 | 0.00 | 90 | 1048.7 |
| 20260506224055 | 49 | 239 | 3.0 | 4.0 | 0.00 | 0.00 | 0.00 | 90 | 1048.6 |
| 20260506223735 | 49 | 239 | 3.0 | 4.0 | 0.00 | 0.00 | 0.00 | 90 | 1048.6 |
| 20260506223707 | 49 | 239 | 3.0 | 4.0 | 0.00 | 0.00 | 0.00 | 90 | 1048.7 |
| 20260506223658 | 49 | 239 | 2.0 | 4.0 | 0.00 | 0.00 | 0.00 | 90 | 1048.7 |
| 20260506223643 | 49 | 239 | 2.0 | 4.0 | 0.00 | 0.00 | 0.00 | 90 | 1048.7 |
| 20260506223635 | 49 | 239 | 2.0 | 4.0 | 0.00 | 0.00 | 0.00 | 90 | 1048.7 |
| 20260506223625 | 49 | 239 | 2.0 | 4.0 | 0.00 | 0.00 | 0.00 | 90 | 1048.7 |
| 20260506223354 | 49 | 239 | 2.0 | 4.0 | 0.00 | 0.00 | 0.00 | 90 | 1048.7 |
| 20260506223347 | 49 | 239 | 2.0 | 4.0 | 0.00 | 0.00 | 0.00 | 90 | 1048.7 |
| 20260506223339 | 49 | 239 | 2.0 | 4.0 | 0.00 | 0.00 | 0.00 | 90 | 1048.7 |
| 20260506223327 | 49 | 239 | 3.0 | 4.0 | 0.00 | 0.00 | 0.00 | 89 | 1048.6 |
| 20260506223308 | 49 | 239 | 3.0 | 4.0 | 0.00 | 0.00 | 0.00 | 89 | 1048.7 |
| 20260506223300 | 50 | 239 | 3.0 | 4.0 | 0.00 | 0.00 | 0.00 | 89 | 1048.7 |
| 20260506223038 | 50 | 239 | 3.0 | 4.0 | 0.00 | 0.00 | 0.00 | 89 | 1048.7 |
| 20260506223030 | 50 | 239 | 3.0 | 4.0 | 0.00 | 0.00 | 0.00 | 89 | 1048.7 |
| 20260506222753 | 50 | 239 | 3.0 | 4.0 | 0.00 | 0.00 | 0.00 | 89 | 1048.7 |
| 20260506221725 | 50 | 239 | 3.0 | 5.0 | 0.00 | 0.00 | 0.00 | 90 | 1048.7 |
| 20260506221631 | 50 | 239 | 3.0 | 5.0 | 0.00 | 0.00 | 0.00 | 90 | 1048.7 |
| 20260506221532 | 50 | 239 | 3.0 | 5.0 | 0.00 | 0.00 | 0.00 | 89 | 1048.7 |
| 20260506221431 | 50 | 239 | 3.0 | 5.0 | 0.00 | 0.00 | 0.00 | 89 | 1048.6 |
| 20260506221341 | 50 | 239 | 3.0 | 5.0 | 0.00 | 0.00 | 0.00 | 89 | 1048.7 |
| 20260506221322 | 50 | 239 | 3.0 | 5.0 | 0.00 | 0.00 | 0.00 | 89 | 1048.7 |
| 20260506221312 | 50 | 239 | 3.0 | 5.0 | 0.00 | 0.00 | 0.00 | 89 | 1048.7 |
| 20260506221306 | 50 | 239 | 3.0 | 5.0 | 0.00 | 0.00 | 0.00 | 89 | 1048.7 |
| 20260506221259 | 50 | 239 | 3.0 | 5.0 | 0.00 | 0.00 | 0.00 | 89 | 1048.7 |
| 20260506221249 | 50 | 239 | 3.0 | 5.0 | 0.00 | 0.00 | 0.00 | 89 | 1048.7 |
| 20260506220753 | 50 | 239 | 3.0 | 5.0 | 0.00 | 0.00 | 0.00 | 89 | 1048.6 |
| 20260506220745 | 50 | 239 | 3.0 | 5.0 | 0.00 | 0.00 | 0.00 | 89 | 1048.7 |
| 20260506220733 | 50 | 239 | 3.0 | 4.0 | 0.00 | 0.00 | 0.00 | 89 | 1048.6 |
| 20260506220451 | 50 | 239 | 3.0 | 4.0 | 0.00 | 0.00 | 0.00 | 89 | 1048.7 |
| 20260506220227 | 50 | 239 | 3.0 | 4.0 | 0.00 | 0.00 | 0.00 | 89 | 1048.7 |
| 20260506215959 | 50 | 239 | 3.0 | 4.0 | 0.00 | 0.00 | 0.00 | 89 | 1048.6 |
| 20260506215938 | 50 | 239 | 3.0 | 4.0 | 0.00 | 0.00 | 0.00 | 89 | 1048.6 |
| 20260506215630 | 50 | 239 | 3.0 | 4.0 | 0.00 | 0.00 | 0.00 | 89 | 1048.6 |
| 20260506215530 | 50 | 239 | 3.0 | 4.0 | 0.00 | 0.00 | 0.00 | 89 | 1048.6 |
| 20260506215430 | 50 | 239 | 3.0 | 4.0 | 0.00 | 0.00 | 0.00 | 89 | 1048.5 |
| 20260506215330 | 50 | 239 | 3.0 | 4.0 | 0.00 | 0.00 | 0.00 | 89 | 1048.6 |
| 20260506215222 | 50 | 239 | 3.0 | 4.0 | 0.00 | 0.00 | 0.00 | 89 | 1048.5 |
| 20260506215159 | 50 | 239 | 3.0 | 4.0 | 0.00 | 0.00 | 0.00 | 89 | 1048.5 |
| 20260506215153 | 50 | 239 | 3.0 | 4.0 | 0.00 | 0.00 | 0.00 | 89 | 1048.6 |
| 20260506214828 | 50 | 239 | 3.0 | 4.0 | 0.00 | 0.00 | 0.00 | 89 | 1048.6 |
| 20260506214725 | 50 | 239 | 3.0 | 4.0 | 0.00 | 0.00 | 0.00 | 89 | 1048.6 |
| 20260506214711 | 50 | 239 | 3.0 | 4.0 | 0.00 | 0.00 | 0.00 | 89 | 1048.6 |
| 20260506214703 | 50 | 239 | 3.0 | 4.0 | 0.00 | 0.00 | 0.00 | 89 | 1048.6 |
| 20260506214652 | 50 | 238 | 3.0 | 4.0 | 0.00 | 0.00 | 0.00 | 89 | 1048.6 |
| 20260506214638 | 50 | 238 | 3.0 | 4.0 | 0.00 | 0.00 | 0.00 | 89 | 1048.5 |
| 20260506214413 | 50 | 238 | 3.0 | 4.0 | 0.00 | 0.00 | 0.00 | 89 | 1048.6 |
| 20260506214341 | 50 | 238 | 3.0 | 4.0 | 0.00 | 0.00 | 0.00 | 88 | 1048.6 |
| 20260506214334 | 50 | 237 | 3.0 | 4.0 | 0.00 | 0.00 | 0.00 | 88 | 1048.5 |
| 20260506214105 | 50 | 237 | 3.0 | 4.0 | 0.00 | 0.00 | 0.00 | 88 | 1048.5 |
| 20260506213841 | 50 | 237 | 3.0 | 4.0 | 0.00 | 0.00 | 0.00 | 88 | 1048.5 |
| 20260506213518 | 50 | 237 | 3.0 | 4.0 | 0.00 | 0.00 | 0.00 | 88 | 1048.5 |
| 20260506213502 | 50 | 236 | 3.0 | 4.0 | 0.00 | 0.00 | 0.00 | 88 | 1048.5 |
| 20260506213449 | 50 | 237 | 3.0 | 4.0 | 0.00 | 0.00 | 0.00 | 88 | 1048.5 |
| 20260506213221 | 50 | 237 | 2.0 | 4.0 | 0.00 | 0.00 | 0.00 | 88 | 1048.5 |
| 20260506213118 | 50 | 237 | 2.0 | 4.0 | 0.00 | 0.00 | 0.00 | 88 | 1048.5 |
| 20260506213018 | 50 | 237 | 2.0 | 4.0 | 0.00 | 0.00 | 0.00 | 88 | 1048.5 |
| 20260506212917 | 50 | 237 | 2.0 | 4.0 | 0.00 | 0.00 | 0.00 | 88 | 1048.6 |
| 20260506212818 | 50 | 237 | 2.0 | 3.0 | 0.00 | 0.00 | 0.00 | 88 | 1048.5 |
| 20260506212720 | 50 | 237 | 2.0 | 3.0 | 0.00 | 0.00 | 0.00 | 88 | 1048.5 |
| 20260506212618 | 50 | 236 | 2.0 | 3.0 | 0.00 | 0.00 | 0.00 | 88 | 1048.5 |
| 20260506212517 | 51 | 237 | 2.0 | 3.0 | 0.00 | 0.00 | 0.00 | 87 | 1048.5 |
| 20260506212412 | 51 | 237 | 2.0 | 3.0 | 0.00 | 0.00 | 0.00 | 87 | 1048.5 |
| 20260506212315 | 51 | 237 | 2.0 | 3.0 | 0.00 | 0.00 | 0.00 | 87 | 1048.5 |
| 20260506212212 | 51 | 237 | 2.0 | 3.0 | 0.00 | 0.00 | 0.00 | 87 | 1048.5 |
| 20260506212112 | 51 | 237 | 2.0 | 3.0 | 0.00 | 0.00 | 0.00 | 87 | 1048.5 |
| 20260506212012 | 51 | 237 | 2.0 | 3.0 | 0.00 | 0.00 | 0.00 | 87 | 1048.5 |
| 20260506211912 | 51 | 237 | 2.0 | 3.0 | 0.00 | 0.00 | 0.00 | 87 | 1048.5 |
| 20260506211855 | 51 | 237 | 2.0 | 3.0 | 0.00 | 0.00 | 0.00 | 87 | 1048.5 |
| 20260506211837 | 51 | 237 | 2.0 | 3.0 | 0.00 | 0.00 | 0.00 | 87 | 1048.5 |
| 20260506211558 | 51 | 237 | 2.0 | 3.0 | 0.00 | 0.00 | 0.00 | 87 | 1048.4 |
| 20260506211550 | 51 | 237 | 2.0 | 3.0 | 0.00 | 0.00 | 0.00 | 87 | 1048.4 |
| 20260506211258 | 51 | 237 | 2.0 | 3.0 | 0.00 | 0.00 | 0.00 | 87 | 1048.5 |
| 20260506211250 | 51 | 237 | 2.0 | 3.0 | 0.00 | 0.00 | 0.00 | 87 | 1048.5 |
| 20260506210912 | 51 | 237 | 2.0 | 3.0 | 0.00 | 0.00 | 0.00 | 87 | 1048.5 |
| 20260506210812 | 51 | 237 | 2.0 | 3.0 | 0.00 | 0.00 | 0.00 | 87 | 1048.4 |
| 20260506210712 | 51 | 237 | 2.0 | 3.0 | 0.00 | 0.00 | 0.00 | 87 | 1048.4 |
| 20260506210612 | 51 | 237 | 2.0 | 4.0 | 0.00 | 0.00 | 0.00 | 86 | 1048.4 |
| 20260506210512 | 51 | 237 | 2.0 | 4.0 | 0.00 | 0.00 | 0.00 | 86 | 1048.4 |
| 20260506210412 | 51 | 237 | 2.0 | 4.0 | 0.00 | 0.00 | 0.00 | 86 | 1048.4 |
| 20260506210312 | 51 | 237 | 2.0 | 4.0 | 0.00 | 0.00 | 0.00 | 86 | 1048.4 |
| 20260506210212 | 51 | 237 | 2.0 | 4.0 | 0.00 | 0.00 | 0.00 | 86 | 1048.3 |
| 20260506210112 | 51 | 237 | 2.0 | 4.0 | 0.00 | 0.00 | 0.00 | 86 | 1048.4 |
| 20260506210012 | 51 | 237 | 2.0 | 4.0 | 0.00 | 0.00 | 0.00 | 86 | 1048.3 |
| 20260506205940 | 52 | 237 | 2.0 | 4.0 | 0.00 | 0.00 | 0.00 | 86 | 1048.3 |
| 20260506205931 | 52 | 237 | 2.0 | 4.0 | 0.00 | 0.00 | 0.00 | 86 | 1048.4 |
| 20260506205910 | 52 | 237 | 2.0 | 4.0 | 0.00 | 0.00 | 0.00 | 86 | 1048.3 |
| 20260506205637 | 52 | 237 | 2.0 | 3.0 | 0.00 | 0.00 | 0.00 | 86 | 1048.3 |
| 20260506205349 | 52 | 237 | 2.0 | 3.0 | 0.00 | 0.00 | 0.00 | 86 | 1048.3 |
| 20260506205330 | 52 | 237 | 3.0 | 3.0 | 0.00 | 0.00 | 0.00 | 86 | 1048.3 |
| 20260506205008 | 52 | 237 | 3.0 | 3.0 | 0.00 | 0.00 | 0.00 | 85 | 1048.2 |
| 20260506204908 | 52 | 236 | 3.0 | 3.0 | 0.00 | 0.00 | 0.00 | 86 | 1048.2 |
| 20260506204852 | 52 | 237 | 3.0 | 3.0 | 0.00 | 0.00 | 0.00 | 86 | 1048.2 |
| 20260506204835 | 52 | 237 | 2.0 | 4.0 | 0.00 | 0.00 | 0.00 | 86 | 1048.2 |
| 20260506204549 | 52 | 237 | 2.0 | 4.0 | 0.00 | 0.00 | 0.00 | 86 | 1048.2 |
| 20260506204540 | 52 | 237 | 2.0 | 4.0 | 0.00 | 0.00 | 0.00 | 86 | 1048.2 |
| 20260506204533 | 52 | 237 | 2.0 | 4.0 | 0.00 | 0.00 | 0.00 | 85 | 1048.1 |
| 20260506204513 | 52 | 236 | 2.0 | 4.0 | 0.00 | 0.00 | 0.00 | 85 | 1048.1 |
| 20260506204244 | 52 | 237 | 2.0 | 4.0 | 0.00 | 0.00 | 0.00 | 85 | 1048.1 |
| 20260506203953 | 52 | 237 | 2.0 | 4.0 | 0.00 | 0.00 | 0.00 | 85 | 1048.0 |
| 20260506203943 | 52 | 237 | 2.0 | 4.0 | 0.00 | 0.00 | 0.00 | 85 | 1048.1 |
| 20260506203925 | 52 | 237 | 2.0 | 4.0 | 0.00 | 0.00 | 0.00 | 85 | 1048.1 |
| 20260506203623 | 52 | 237 | 2.0 | 4.0 | 0.00 | 0.00 | 0.00 | 84 | 1048.0 |
| 20260506203616 | 52 | 237 | 2.0 | 4.0 | 0.00 | 0.00 | 0.00 | 85 | 1048.0 |
| 20260506203602 | 52 | 237 | 2.0 | 4.0 | 0.00 | 0.00 | 0.00 | 84 | 1048.0 |
| 20260506203550 | 53 | 237 | 2.0 | 4.0 | 0.00 | 0.00 | 0.00 | 84 | 1048.0 |
| 20260506203318 | 53 | 237 | 2.0 | 3.0 | 0.00 | 0.00 | 0.00 | 84 | 1048.0 |
| 20260506203309 | 53 | 237 | 2.0 | 3.0 | 0.00 | 0.00 | 0.00 | 84 | 1048.0 |
| 20260506203035 | 53 | 237 | 2.0 | 3.0 | 0.00 | 0.00 | 0.00 | 84 | 1048.0 |
| 20260506202709 | 53 | 237 | 2.0 | 3.0 | 0.00 | 0.00 | 0.00 | 84 | 1047.9 |
| 20260506202608 | 53 | 237 | 2.0 | 3.0 | 0.00 | 0.00 | 0.00 | 84 | 1047.9 |
| 20260506202541 | 53 | 236 | 2.0 | 3.0 | 0.00 | 0.00 | 0.00 | 83 | 1047.9 |
| 20260506202533 | 53 | 237 | 2.0 | 3.0 | 0.00 | 0.00 | 0.00 | 83 | 1047.8 |
| 20260506202208 | 53 | 237 | 2.0 | 3.0 | 0.00 | 0.00 | 0.00 | 83 | 1047.9 |
| 20260506202108 | 53 | 237 | 1.0 | 3.0 | 0.00 | 0.00 | 0.00 | 83 | 1047.9 |
| 20260506202008 | 53 | 237 | 1.0 | 3.0 | 0.00 | 0.00 | 0.00 | 83 | 1047.8 |
| 20260506201952 | 53 | 237 | 1.0 | 3.0 | 0.00 | 0.00 | 0.00 | 83 | 1047.8 |
| 20260506201942 | 54 | 237 | 1.0 | 3.0 | 0.00 | 0.00 | 0.00 | 83 | 1047.7 |
| 20260506201704 | 54 | 237 | 1.0 | 2.0 | 0.00 | 0.00 | 0.00 | 82 | 1047.7 |
| 20260506201605 | 54 | 237 | 0.0 | 2.0 | 0.00 | 0.00 | 0.00 | 82 | 1047.7 |
| 20260506201504 | 54 | 236 | 0.0 | 2.0 | 0.00 | 0.00 | 0.00 | 82 | 1047.7 |
| 20260506201404 | 54 | 237 | 0.0 | 1.0 | 0.00 | 0.00 | 0.00 | 82 | 1047.7 |
| 20260506201309 | 54 | 237 | 0.0 | 1.0 | 0.00 | 0.00 | 0.00 | 82 | 1047.7 |
| 20260506201230 | 54 | 236 | 0.0 | 1.0 | 0.00 | 0.00 | 0.00 | 82 | 1047.7 |
| 20260506201204 | 54 | 237 | 0.0 | 1.0 | 0.00 | 0.00 | 0.00 | 82 | 1047.7 |
| 20260506201142 | 54 | 237 | 0.0 | 2.0 | 0.00 | 0.00 | 0.00 | 82 | 1047.7 |
| 20260506201131 | 54 | 236 | 0.0 | 2.0 | 0.00 | 0.00 | 0.00 | 82 | 1047.7 |
| 20260506200807 | 54 | 237 | 1.0 | 3.0 | 0.00 | 0.00 | 0.00 | 81 | 1047.6 |
| 20260506200728 | 54 | 237 | 1.0 | 3.0 | 0.00 | 0.00 | 0.00 | 81 | 1047.6 |
| 20260506200720 | 54 | 237 | 1.0 | 3.0 | 0.00 | 0.00 | 0.00 | 81 | 1047.6 |
| 20260506200712 | 54 | 237 | 1.0 | 3.0 | 0.00 | 0.00 | 0.00 | 81 | 1047.6 |
| 20260506200659 | 55 | 237 | 1.0 | 3.0 | 0.00 | 0.00 | 0.00 | 81 | 1047.6 |
| 20260506200424 | 55 | 237 | 2.0 | 4.0 | 0.00 | 0.00 | 0.00 | 81 | 1047.6 |
| 20260506200104 | 55 | 237 | 2.0 | 4.0 | 0.00 | 0.00 | 0.00 | 80 | 1047.5 |
| 20260506200025 | 55 | 237 | 2.0 | 4.0 | 0.00 | 0.00 | 0.00 | 81 | 1047.5 |
| 20260506200017 | 55 | 237 | 2.0 | 4.0 | 0.00 | 0.00 | 0.00 | 80 | 1047.6 |
| 20260506200007 | 55 | 237 | 2.0 | 4.0 | 0.00 | 0.00 | 0.00 | 80 | 1047.6 |
| 20260506195943 | 55 | 237 | 2.0 | 4.0 | 0.00 | 0.00 | 0.00 | 80 | 1047.5 |
| 20260506195403 | 56 | 237 | 2.0 | 4.0 | 0.00 | 0.00 | 0.00 | 79 | 1047.5 |
| 20260506195306 | 56 | 237 | 2.0 | 4.0 | 0.00 | 0.00 | 0.00 | 79 | 1047.5 |
| 20260506195204 | 56 | 237 | 1.0 | 3.0 | 0.00 | 0.00 | 0.00 | 78 | 1047.5 |
| 20260506195107 | 56 | 237 | 1.0 | 3.0 | 0.00 | 0.00 | 0.00 | 78 | 1047.4 |
| 20260506195004 | 56 | 237 | 1.0 | 3.0 | 0.00 | 0.01 | 0.00 | 78 | 1047.4 |
| 20260506194946 | 57 | 237 | 1.0 | 3.0 | 0.00 | 0.01 | 0.00 | 77 | 1047.5 |
| 20260506194937 | 57 | 237 | 1.0 | 2.0 | 0.00 | 0.01 | 0.00 | 77 | 1047.4 |
| 20260506194918 | 57 | 237 | 0.0 | 2.0 | 0.00 | 0.01 | 0.00 | 76 | 1047.4 |
| 20260506194603 | 57 | 237 | 0.0 | 2.0 | 0.00 | 0.01 | 0.00 | 76 | 1047.4 |
| 20260506194548 | 57 | 237 | 0.0 | 2.0 | 0.00 | 0.01 | 0.00 | 76 | 1047.4 |
| 20260506194540 | 57 | 237 | 0.0 | 2.0 | 0.00 | 0.01 | 0.00 | 76 | 1047.4 |
| 20260506194251 | 57 | 237 | 1.0 | 2.0 | 0.00 | 0.01 | 0.00 | 76 | 1047.4 |
| 20260506194242 | 57 | 237 | 1.0 | 2.0 | 0.00 | 0.01 | 0.00 | 76 | 1047.4 |
| 20260506194228 | 58 | 237 | 1.0 | 2.0 | 0.00 | 0.01 | 0.00 | 75 | 1047.3 |
| 20260506193929 | 58 | 237 | 1.0 | 2.0 | 0.00 | 0.01 | 0.00 | 75 | 1047.3 |
| 20260506193919 | 58 | 237 | 1.0 | 2.0 | 0.00 | 0.01 | 0.00 | 75 | 1047.2 |
| 20260506193900 | 58 | 237 | 1.0 | 2.0 | 0.00 | 0.01 | 0.00 | 74 | 1047.2 |
| 20260506193543 | 58 | 237 | 1.0 | 2.0 | 0.00 | 0.01 | 0.00 | 73 | 1047.1 |
| 20260506193444 | 58 | 237 | 1.0 | 2.0 | 0.00 | 0.01 | 0.00 | 72 | 1047.1 |
| 20260506193400 | 58 | 237 | 1.0 | 2.0 | 0.00 | 0.01 | 0.00 | 71 | 1047.1 |
| 20260506193339 | 58 | 237 | 1.0 | 2.0 | 0.00 | 0.01 | 0.00 | 72 | 1047.1 |
| 20260506193333 | 58 | 237 | 0.0 | 2.0 | 0.00 | 0.01 | 0.00 | 72 | 1047.0 |
| 20260506193316 | 58 | 237 | 0.0 | 2.0 | 0.00 | 0.01 | 0.00 | 72 | 1047.0 |
| 20260506193050 | 58 | 237 | 0.0 | 2.0 | 0.00 | 0.01 | 0.00 | 72 | 1047.0 |
| 20260506192816 | 58 | 237 | 0.0 | 2.0 | 0.00 | 0.01 | 0.00 | 72 | 1047.0 |
| 20260506192809 | 58 | 237 | 0.0 | 2.0 | 0.00 | 0.01 | 0.00 | 72 | 1046.9 |
| 20260506192445 | 58 | 237 | 0.0 | 2.0 | 0.00 | 0.01 | 0.00 | 72 | 1046.9 |
| 20260506192344 | 58 | 237 | 1.0 | 2.0 | 0.00 | 0.01 | 0.00 | 72 | 1046.9 |
| 20260506192245 | 58 | 237 | 1.0 | 2.0 | 0.00 | 0.01 | 0.00 | 72 | 1046.8 |
| 20260506192205 | 58 | 237 | 1.0 | 2.0 | 0.00 | 0.01 | 0.00 | 72 | 1046.8 |
| 20260506192144 | 58 | 237 | 1.0 | 2.0 | 0.00 | 0.01 | 0.00 | 72 | 1046.8 |
| 20260506192044 | 59 | 237 | 1.0 | 2.0 | 0.00 | 0.01 | 0.00 | 72 | 1046.8 |
| 20260506191944 | 59 | 237 | 1.0 | 2.0 | 0.00 | 0.01 | 0.00 | 72 | 1046.8 |
| 20260506191842 | 59 | 237 | 1.0 | 2.0 | 0.00 | 0.01 | 0.00 | 71 | 1046.8 |
| 20260506191740 | 59 | 237 | 1.0 | 2.0 | 0.00 | 0.01 | 0.00 | 71 | 1046.8 |
| 20260506191704 | 59 | 237 | 1.0 | 2.0 | 0.00 | 0.01 | 0.00 | 71 | 1046.8 |
| 20260506191640 | 59 | 237 | 1.0 | 2.0 | 0.00 | 0.01 | 0.00 | 71 | 1046.8 |
| 20260506191537 | 59 | 237 | 1.0 | 2.0 | 0.00 | 0.01 | 0.00 | 71 | 1046.7 |
| 20260506191507 | 59 | 237 | 1.0 | 3.0 | 0.00 | 0.01 | 0.00 | 71 | 1046.7 |
| 20260506191500 | 59 | 237 | 1.0 | 3.0 | 0.00 | 0.01 | 0.00 | 71 | 1046.7 |
| 20260506191205 | 59 | 237 | 1.0 | 3.0 | 0.00 | 0.01 | 0.00 | 71 | 1046.7 |
| 20260506191136 | 59 | 237 | 1.0 | 3.0 | 0.00 | 0.01 | 0.00 | 71 | 1046.7 |
| 20260506191052 | 59 | 237 | 1.0 | 3.0 | 0.00 | 0.01 | 0.00 | 71 | 1046.7 |
| 20260506191044 | 59 | 237 | 1.0 | 3.0 | 0.00 | 0.01 | 0.00 | 71 | 1046.7 |
| 20260506191030 | 60 | 237 | 1.0 | 3.0 | 0.00 | 0.01 | 0.00 | 71 | 1046.7 |
| 20260506190737 | 60 | 237 | 1.0 | 3.0 | 0.00 | 0.01 | 0.00 | 71 | 1046.7 |
| 20260506190721 | 60 | 237 | 1.0 | 3.0 | 0.00 | 0.01 | 0.00 | 71 | 1046.7 |
| 20260506190657 | 60 | 237 | 1.0 | 3.0 | 0.00 | 0.01 | 0.00 | 71 | 1046.7 |
| 20260506190332 | 60 | 237 | 1.0 | 3.0 | 0.00 | 0.01 | 0.00 | 71 | 1046.6 |
| 20260506190207 | 60 | 237 | 1.0 | 3.0 | 0.00 | 0.01 | 0.00 | 71 | 1046.6 |
| 20260506190153 | 60 | 237 | 1.0 | 3.0 | 0.00 | 0.01 | 0.00 | 71 | 1046.6 |
| 20260506190059 | 60 | 237 | 1.0 | 2.0 | 0.00 | 0.01 | 0.00 | 71 | 1046.6 |
| 20260506190053 | 60 | 237 | 1.0 | 2.0 | 0.00 | 0.01 | 0.00 | 72 | 1046.6 |
| 20260506185706 | 60 | 237 | 1.0 | 3.0 | 0.00 | 0.01 | 0.00 | 71 | 1046.5 |
| 20260506185632 | 60 | 237 | 1.0 | 3.0 | 0.00 | 0.01 | 0.00 | 70 | 1046.5 |
| 20260506185532 | 60 | 237 | 1.0 | 3.0 | 0.00 | 0.01 | 0.00 | 70 | 1046.5 |
| 20260506185432 | 60 | 237 | 1.0 | 4.0 | 0.00 | 0.01 | 0.00 | 69 | 1046.4 |
| 20260506185332 | 60 | 237 | 1.0 | 4.0 | 0.00 | 0.01 | 0.00 | 69 | 1046.5 |
| 20260506185250 | 60 | 237 | 1.0 | 4.0 | 0.00 | 0.01 | 0.00 | 69 | 1046.5 |
| 20260506185239 | 60 | 237 | 1.0 | 4.0 | 0.00 | 0.01 | 0.00 | 68 | 1046.5 |
| 20260506185231 | 60 | 237 | 1.0 | 4.0 | 0.00 | 0.01 | 0.00 | 68 | 1046.4 |
| 20260506185220 | 60 | 237 | 1.0 | 4.0 | 0.00 | 0.01 | 0.00 | 68 | 1046.5 |
| 20260506185211 | 60 | 237 | 1.0 | 4.0 | 0.00 | 0.01 | 0.00 | 68 | 1046.4 |
| 20260506185202 | 61 | 237 | 1.0 | 4.0 | 0.00 | 0.01 | 0.00 | 68 | 1046.4 |
| 20260506185154 | 61 | 237 | 1.0 | 4.0 | 0.00 | 0.01 | 0.00 | 67 | 1046.5 |
| 20260506185145 | 61 | 237 | 1.0 | 4.0 | 0.00 | 0.01 | 0.00 | 68 | 1046.5 |
| 20260506184918 | 61 | 237 | 1.0 | 4.0 | 0.00 | 0.01 | 0.00 | 68 | 1046.4 |
| 20260506184909 | 61 | 237 | 1.0 | 4.0 | 0.00 | 0.01 | 0.00 | 68 | 1046.4 |
| 20260506184903 | 61 | 236 | 2.0 | 4.0 | 0.00 | 0.01 | 0.00 | 68 | 1046.4 |
| 20260506184850 | 61 | 237 | 2.0 | 4.0 | 0.00 | 0.01 | 0.00 | 68 | 1046.4 |
| 20260506184138 | 61 | 236 | 1.0 | 4.0 | 0.00 | 0.01 | 0.00 | 67 | 1046.3 |
| 20260506184129 | 61 | 237 | 1.0 | 4.0 | 0.00 | 0.01 | 0.00 | 67 | 1046.3 |
| 20260506183902 | 61 | 237 | 1.0 | 4.0 | 0.00 | 0.01 | 0.00 | 67 | 1046.3 |
| 20260506183522 | 61 | 236 | 1.0 | 4.0 | 0.00 | 0.01 | 0.00 | 67 | 1046.3 |
| 20260506183420 | 61 | 236 | 1.0 | 4.0 | 0.00 | 0.01 | 0.00 | 66 | 1046.3 |
| 20260506183318 | 61 | 237 | 1.0 | 4.0 | 0.00 | 0.01 | 0.00 | 67 | 1046.3 |
| 20260506183206 | 61 | 237 | 1.0 | 4.0 | 0.00 | 0.01 | 0.00 | 67 | 1046.2 |
| 20260506183118 | 61 | 237 | 1.0 | 4.0 | 0.00 | 0.01 | 0.00 | 67 | 1046.2 |
| 20260506183024 | 62 | 236 | 1.0 | 4.0 | 0.00 | 0.01 | 0.00 | 66 | 1046.2 |
| 20260506182918 | 62 | 237 | 1.0 | 4.0 | 0.00 | 0.01 | 0.00 | 66 | 1046.2 |
| 20260506182819 | 62 | 236 | 2.0 | 5.0 | 0.00 | 0.01 | 0.00 | 66 | 1046.2 |
| 20260506182704 | 62 | 236 | 2.0 | 5.0 | 0.00 | 0.01 | 0.00 | 66 | 1046.2 |
| 20260506182619 | 62 | 236 | 2.0 | 5.0 | 0.00 | 0.01 | 0.00 | 66 | 1046.2 |
| 20260506182515 | 62 | 236 | 2.0 | 5.0 | 0.00 | 0.01 | 0.00 | 66 | 1046.1 |
| 20260506182417 | 62 | 236 | 2.0 | 5.0 | 0.00 | 0.01 | 0.00 | 66 | 1046.2 |
| 20260506182317 | 62 | 236 | 3.0 | 5.0 | 0.00 | 0.01 | 0.00 | 66 | 1046.1 |
| 20260506182204 | 62 | 236 | 3.0 | 5.0 | 0.00 | 0.01 | 0.00 | 66 | 1046.1 |
| 20260506182118 | 62 | 236 | 3.0 | 5.0 | 0.00 | 0.01 | 0.00 | 66 | 1046.1 |
| 20260506182015 | 62 | 236 | 3.0 | 7.0 | 0.00 | 0.01 | 0.00 | 66 | 1046.1 |
| 20260506181946 | 62 | 236 | 3.0 | 7.0 | 0.00 | 0.01 | 0.00 | 65 | 1046.1 |
| 20260506181937 | 62 | 236 | 2.0 | 7.0 | 0.00 | 0.01 | 0.00 | 65 | 1046.1 |
| 20260506181924 | 62 | 236 | 2.0 | 7.0 | 0.00 | 0.01 | 0.00 | 65 | 1046.0 |
| 20260506181611 | 62 | 236 | 2.0 | 7.0 | 0.00 | 0.01 | 0.00 | 65 | 1046.0 |
| 20260506181508 | 62 | 236 | 2.0 | 7.0 | 0.00 | 0.01 | 0.00 | 65 | 1046.0 |
| 20260506181450 | 62 | 237 | 2.0 | 7.0 | 0.00 | 0.01 | 0.00 | 65 | 1046.0 |
| 20260506181443 | 62 | 236 | 2.0 | 7.0 | 0.00 | 0.01 | 0.00 | 65 | 1046.0 |
| 20260506181210 | 62 | 237 | 2.0 | 7.0 | 0.00 | 0.01 | 0.00 | 64 | 1046.0 |
| 20260506181139 | 62 | 237 | 2.0 | 7.0 | 0.00 | 0.01 | 0.00 | 64 | 1046.0 |
| 20260506181130 | 62 | 237 | 2.0 | 5.0 | 0.00 | 0.01 | 0.00 | 64 | 1046.0 |
| 20260506180814 | 63 | 237 | 2.0 | 5.0 | 0.00 | 0.01 | 0.00 | 63 | 1045.9 |
| 20260506180752 | 63 | 237 | 2.0 | 5.0 | 0.00 | 0.01 | 0.00 | 64 | 1045.9 |
| 20260506180739 | 63 | 237 | 2.0 | 5.0 | 0.00 | 0.01 | 0.00 | 63 | 1045.9 |
| 20260506180733 | 63 | 237 | 2.0 | 6.0 | 0.00 | 0.01 | 0.00 | 63 | 1045.9 |
| 20260506180725 | 63 | 244 | 2.0 | 7.0 | 0.00 | 0.01 | 0.00 | 63 | 1045.9 |
| 20260506180718 | 63 | 244 | 2.0 | 7.0 | 0.00 | 0.01 | 0.00 | 63 | 1045.9 |
| 20260506180647 | 64 | 244 | 2.0 | 7.0 | 0.00 | 0.01 | 0.00 | 62 | 1045.9 |
| 20260506180201 | 64 | 244 | 3.0 | 7.0 | 0.00 | 0.01 | 0.00 | 62 | 1045.8 |
| 20260506180153 | 64 | 244 | 3.0 | 7.0 | 0.00 | 0.01 | 0.00 | 62 | 1045.8 |
| 20260506175706 | 64 | 244 | 3.0 | 7.0 | 0.00 | 0.01 | 0.00 | 62 | 1045.8 |
| 20260506175604 | 64 | 245 | 3.0 | 8.0 | 0.00 | 0.01 | 0.00 | 62 | 1045.8 |
| 20260506175503 | 64 | 201 | 3.0 | 8.0 | 0.00 | 0.01 | 0.00 | 62 | 1045.8 |
| 20260506175403 | 64 | 144 | 3.0 | 8.0 | 0.00 | 0.01 | 0.00 | 61 | 1045.8 |
| 20260506175306 | 64 | 144 | 3.0 | 8.0 | 0.00 | 0.01 | 0.00 | 61 | 1045.7 |
| 20260506175230 | 64 | 144 | 3.0 | 8.0 | 0.00 | 0.01 | 0.00 | 60 | 1045.8 |
| 20260506175218 | 64 | 143 | 3.0 | 8.0 | 0.00 | 0.01 | 0.00 | 60 | 1045.8 |
| 20260506175205 | 64 | 143 | 3.0 | 8.0 | 0.00 | 0.01 | 0.00 | 60 | 1045.8 |
| 20260506174941 | 64 | 141 | 4.0 | 8.0 | 0.00 | 0.01 | 0.00 | 59 | 1045.8 |
| 20260506174706 | 64 | 141 | 4.0 | 8.0 | 0.00 | 0.01 | 0.00 | 59 | 1045.8 |
| 20260506174604 | 64 | 217 | 4.0 | 7.0 | 0.00 | 0.01 | 0.00 | 59 | 1045.7 |
| 20260506174504 | 64 | 217 | 4.0 | 7.0 | 0.00 | 0.01 | 0.00 | 59 | 1045.8 |
| 20260506174404 | 64 | 217 | 4.0 | 8.0 | 0.00 | 0.01 | 0.00 | 59 | 1045.8 |
| 20260506174304 | 64 | 218 | 4.0 | 8.0 | 0.00 | 0.01 | 0.00 | 58 | 1045.8 |
| 20260506174206 | 64 | 208 | 4.0 | 8.0 | 0.00 | 0.01 | 0.00 | 58 | 1045.7 |
| 20260506174102 | 65 | 208 | 4.0 | 8.0 | 0.00 | 0.01 | 0.00 | 58 | 1045.7 |
| 20260506173959 | 65 | 208 | 4.0 | 8.0 | 0.00 | 0.01 | 0.00 | 57 | 1045.7 |
| 20260506173858 | 65 | 210 | 4.0 | 8.0 | 0.00 | 0.01 | 0.00 | 57 | 1045.7 |
| 20260506173758 | 65 | 207 | 4.0 | 8.0 | 0.00 | 0.01 | 0.00 | 57 | 1045.7 |
| 20260506173711 | 65 | 222 | 3.0 | 8.0 | 0.00 | 0.01 | 0.00 | 57 | 1045.7 |
| 20260506173657 | 65 | 222 | 3.0 | 8.0 | 0.00 | 0.01 | 0.00 | 57 | 1045.7 |
| 20260506173557 | 65 | 220 | 4.0 | 8.0 | 0.00 | 0.01 | 0.00 | 56 | 1045.6 |
| 20260506173456 | 65 | 224 | 3.0 | 8.0 | 0.00 | 0.01 | 0.00 | 56 | 1045.6 |
| 20260506173356 | 65 | 187 | 3.0 | 8.0 | 0.00 | 0.01 | 0.00 | 56 | 1045.6 |
| 20260506173256 | 65 | 218 | 3.0 | 7.0 | 0.00 | 0.01 | 0.00 | 56 | 1045.6 |
| 20260506173207 | 65 | 217 | 3.0 | 6.0 | 0.00 | 0.01 | 0.00 | 56 | 1045.6 |
| 20260506173155 | 65 | 217 | 3.0 | 6.0 | 0.00 | 0.01 | 0.00 | 57 | 1045.6 |
| 20260506173054 | 65 | 217 | 3.0 | 8.0 | 0.00 | 0.01 | 0.00 | 57 | 1045.6 |
| 20260506172953 | 65 | 218 | 3.0 | 8.0 | 0.00 | 0.01 | 0.00 | 56 | 1045.6 |
| 20260506172853 | 65 | 218 | 3.0 | 8.0 | 0.00 | 0.01 | 0.00 | 56 | 1045.6 |
| 20260506172754 | 65 | 224 | 4.0 | 8.0 | 0.00 | 0.01 | 0.00 | 55 | 1045.6 |
| 20260506172709 | 66 | 225 | 4.0 | 8.0 | 0.00 | 0.01 | 0.00 | 55 | 1045.6 |
| 20260506172654 | 66 | 225 | 4.0 | 8.0 | 0.00 | 0.01 | 0.00 | 55 | 1045.6 |
| 20260506172611 | 66 | 234 | 4.0 | 8.0 | 0.00 | 0.01 | 0.00 | 55 | 1045.6 |
| 20260506172603 | 66 | 200 | 4.0 | 8.0 | 0.00 | 0.01 | 0.00 | 55 | 1045.6 |
| 20260506172552 | 66 | 200 | 4.0 | 8.0 | 0.00 | 0.01 | 0.00 | 55 | 1045.6 |
| 20260506172534 | 66 | 200 | 4.0 | 8.0 | 0.00 | 0.01 | 0.00 | 54 | 1045.6 |
| 20260506172527 | 66 | 201 | 4.0 | 8.0 | 0.00 | 0.01 | 0.00 | 54 | 1045.6 |
| 20260506172515 | 66 | 220 | 4.0 | 8.0 | 0.00 | 0.01 | 0.00 | 54 | 1045.5 |
| 20260506172247 | 66 | 205 | 4.0 | 8.0 | 0.00 | 0.01 | 0.00 | 54 | 1045.6 |
| 20260506172238 | 66 | 206 | 3.0 | 8.0 | 0.00 | 0.01 | 0.00 | 54 | 1045.6 |
| 20260506171442 | 66 | 204 | 3.0 | 8.0 | 0.00 | 0.03 | 0.00 | 54 | 1045.5 |
| 20260506171341 | 66 | 204 | 4.0 | 8.0 | 0.00 | 0.03 | 0.00 | 54 | 1045.5 |
| 20260506171239 | 66 | 205 | 4.0 | 9.0 | 0.00 | 0.03 | 0.00 | 54 | 1045.6 |
| 20260506171203 | 66 | 239 | 4.0 | 9.0 | 0.00 | 0.03 | 0.00 | 54 | 1045.6 |
| 20260506171140 | 66 | 239 | 4.0 | 9.0 | 0.00 | 0.03 | 0.00 | 54 | 1045.5 |
| 20260506171040 | 66 | 239 | 4.0 | 9.0 | 0.00 | 0.03 | 0.00 | 54 | 1045.6 |
| 20260506170948 | 66 | 211 | 4.0 | 9.0 | 0.00 | 0.03 | 0.00 | 54 | 1045.6 |
| 20260506170940 | 66 | 212 | 4.0 | 9.0 | 0.00 | 0.03 | 0.00 | 54 | 1045.6 |
| 20260506170925 | 66 | 212 | 4.0 | 9.0 | 0.00 | 0.03 | 0.00 | 54 | 1045.5 |
| 20260506170635 | 66 | 213 | 4.0 | 9.0 | 0.00 | 0.03 | 0.00 | 54 | 1045.6 |
| 20260506170535 | 66 | 213 | 4.0 | 9.0 | 0.00 | 0.03 | 0.00 | 54 | 1045.6 |
| 20260506170436 | 66 | 183 | 4.0 | 9.0 | 0.00 | 0.03 | 0.00 | 53 | 1045.6 |
| 20260506170401 | 67 | 182 | 4.0 | 9.0 | 0.00 | 0.03 | 0.00 | 53 | 1045.5 |
| 20260506170352 | 67 | 165 | 4.0 | 8.0 | 0.00 | 0.03 | 0.00 | 53 | 1045.5 |
| 20260506170343 | 67 | 166 | 4.0 | 8.0 | 0.00 | 0.03 | 0.00 | 53 | 1045.5 |
| 20260506170331 | 67 | 166 | 4.0 | 8.0 | 0.00 | 0.03 | 0.00 | 53 | 1045.5 |
| 20260506170051 | 67 | 166 | 4.0 | 8.0 | 0.00 | 0.03 | 0.00 | 53 | 1045.5 |
| 20260506170036 | 67 | 165 | 4.0 | 8.0 | 0.00 | 0.03 | 0.00 | 52 | 1045.5 |
| 20260506170023 | 67 | 165 | 4.0 | 8.0 | 0.00 | 0.03 | 0.00 | 52 | 1045.5 |
| 20260506165754 | 67 | 165 | 3.0 | 8.0 | 0.00 | 0.03 | 0.00 | 53 | 1045.5 |
| 20260506165431 | 67 | 221 | 4.0 | 8.0 | 0.00 | 0.03 | 0.00 | 53 | 1045.4 |
| 20260506165330 | 67 | 222 | 4.0 | 8.0 | 0.00 | 0.03 | 0.00 | 52 | 1045.5 |
| 20260506165205 | 67 | 220 | 4.0 | 8.0 | 0.00 | 0.03 | 0.00 | 52 | 1045.5 |
| 20260506165128 | 67 | 220 | 4.0 | 8.0 | 0.00 | 0.03 | 0.00 | 53 | 1045.4 |
| 20260506165027 | 67 | 211 | 4.0 | 8.0 | 0.00 | 0.03 | 0.00 | 53 | 1045.4 |
| 20260506164923 | 67 | 211 | 4.0 | 8.0 | 0.00 | 0.03 | 0.00 | 53 | 1045.4 |
| 20260506164820 | 67 | 210 | 4.0 | 8.0 | 0.00 | 0.03 | 0.00 | 52 | 1045.4 |
| 20260506164720 | 67 | 208 | 4.0 | 8.0 | 0.00 | 0.03 | 0.00 | 53 | 1045.4 |
| 20260506164702 | 67 | 208 | 4.0 | 8.0 | 0.00 | 0.03 | 0.00 | 53 | 1045.4 |
| 20260506164646 | 67 | 207 | 4.0 | 8.0 | 0.00 | 0.03 | 0.00 | 53 | 1045.4 |
| 20260506164638 | 67 | 208 | 4.0 | 8.0 | 0.00 | 0.03 | 0.00 | 53 | 1045.4 |
| 20260506164313 | 67 | 211 | 4.0 | 9.0 | 0.00 | 0.03 | 0.00 | 53 | 1045.2 |
| 20260506164217 | 67 | 211 | 4.0 | 9.0 | 0.00 | 0.03 | 0.00 | 53 | 1045.4 |
| 20260506164156 | 67 | 216 | 4.0 | 9.0 | 0.00 | 0.03 | 0.00 | 53 | 1045.4 |
| 20260506164118 | 67 | 212 | 4.0 | 9.0 | 0.00 | 0.03 | 0.00 | 53 | 1045.2 |
| 20260506164017 | 67 | 211 | 4.0 | 9.0 | 0.00 | 0.03 | 0.00 | 53 | 1045.4 |
| 20260506163907 | 67 | 211 | 4.0 | 9.0 | 0.00 | 0.03 | 0.00 | 53 | 1045.4 |
| 20260506163807 | 67 | 211 | 4.0 | 9.0 | 0.00 | 0.03 | 0.00 | 52 | 1045.4 |
| 20260506163707 | 67 | 211 | 4.0 | 9.0 | 0.00 | 0.03 | 0.00 | 52 | 1045.4 |
| 20260506163649 | 67 | 211 | 4.0 | 9.0 | 0.00 | 0.03 | 0.00 | 52 | 1045.5 |
| 20260506163605 | 67 | 216 | 4.0 | 9.0 | 0.00 | 0.03 | 0.00 | 52 | 1045.5 |
| 20260506163503 | 68 | 233 | 4.0 | 9.0 | 0.00 | 0.03 | 0.00 | 52 | 1045.4 |
| 20260506163401 | 68 | 249 | 4.0 | 9.0 | 0.00 | 0.03 | 0.00 | 53 | 1045.4 |
| 20260506163308 | 68 | 218 | 4.0 | 9.0 | 0.00 | 0.04 | 0.00 | 52 | 1045.4 |
| 20260506163239 | 68 | 217 | 4.0 | 9.0 | 0.00 | 0.04 | 0.00 | 52 | 1045.4 |
| 20260506163231 | 68 | 217 | 4.0 | 9.0 | 0.00 | 0.04 | 0.00 | 53 | 1045.4 |
| 20260506162858 | 68 | 231 | 4.0 | 9.0 | 0.00 | 0.04 | 0.00 | 53 | 1045.4 |
| 20260506162833 | 68 | 231 | 4.0 | 9.0 | 0.00 | 0.04 | 0.00 | 53 | 1045.2 |
| 20260506162814 | 68 | 231 | 4.0 | 9.0 | 0.00 | 0.04 | 0.00 | 53 | 1045.2 |
| 20260506162806 | 68 | 231 | 4.0 | 9.0 | 0.00 | 0.04 | 0.00 | 53 | 1045.2 |
| 20260506162756 | 68 | 166 | 4.0 | 10.0 | 0.00 | 0.04 | 0.00 | 53 | 1045.2 |
| 20260506162745 | 68 | 160 | 4.0 | 10.0 | 0.00 | 0.04 | 0.00 | 52 | 1045.2 |
| 20260506162513 | 68 | 174 | 4.0 | 10.0 | 0.00 | 0.05 | 0.00 | 53 | 1045.2 |
| 20260506162251 | 68 | 216 | 4.0 | 12.0 | 0.00 | 0.05 | 0.00 | 53 | 1045.2 |
| 20260506162242 | 68 | 217 | 4.0 | 12.0 | 0.00 | 0.06 | 0.00 | 53 | 1045.2 |
| 20260506162234 | 68 | 158 | 5.0 | 12.0 | 0.00 | 0.06 | 0.00 | 53 | 1045.2 |
| 20260506162223 | 68 | 244 | 5.0 | 12.0 | 0.00 | 0.06 | 0.00 | 52 | 1045.1 |
| 20260506162205 | 68 | 251 | 5.0 | 12.0 | 0.00 | 0.06 | 0.00 | 52 | 1045.2 |
| 20260506161923 | 68 | 162 | 4.0 | 12.0 | 0.00 | 0.06 | 0.00 | 52 | 1045.1 |
| 20260506161653 | 68 | 194 | 4.0 | 12.0 | 0.00 | 0.07 | 0.00 | 52 | 1045.1 |
| 20260506161641 | 68 | 198 | 4.0 | 9.0 | 0.00 | 0.07 | 0.00 | 52 | 1045.1 |
| 20260506160838 | 68 | 198 | 4.0 | 9.0 | 0.00 | 0.09 | 0.00 | 52 | 1045.1 |
| 20260506160738 | 68 | 243 | 4.0 | 9.0 | 0.00 | 0.09 | 0.00 | 52 | 1045.1 |
| 20260506160643 | 68 | 192 | 4.0 | 9.0 | 0.00 | 0.09 | 0.00 | 52 | 1045.1 |
| 20260506160540 | 68 | 140 | 4.0 | 9.0 | 0.00 | 0.09 | 0.00 | 54 | 1045.1 |
| 20260506160438 | 68 | 231 | 4.0 | 9.0 | 0.00 | 0.09 | 0.00 | 54 | 1045.1 |
| 20260506160337 | 67 | 231 | 4.0 | 9.0 | 0.00 | 0.10 | 0.00 | 53 | 1045.1 |
| 20260506160237 | 67 | 233 | 4.0 | 9.0 | 0.00 | 0.10 | 0.00 | 52 | 1045.1 |
| 20260506160136 | 67 | 231 | 4.0 | 9.0 | 0.00 | 0.11 | 0.00 | 52 | 1045.1 |
| 20260506160035 | 67 | 153 | 3.0 | 9.0 | 0.00 | 0.11 | 0.00 | 52 | 1045.1 |
| 20260506155934 | 67 | 147 | 3.0 | 9.0 | 0.00 | 0.11 | 0.00 | 52 | 1045.1 |
| 20260506155916 | 67 | 143 | 3.0 | 9.0 | 0.00 | 0.12 | 0.00 | 53 | 1045.1 |
| 20260506155904 | 67 | 218 | 4.0 | 9.0 | 0.00 | 0.12 | 0.00 | 52 | 1045.1 |
| 20260506155854 | 67 | 227 | 4.0 | 9.0 | 0.00 | 0.12 | 0.00 | 52 | 1045.1 |
| 20260506155528 | 67 | 183 | 4.0 | 9.0 | 0.00 | 0.12 | 0.00 | 53 | 1045.2 |
| 20260506155429 | 67 | 238 | 4.0 | 9.0 | 0.00 | 0.12 | 0.00 | 53 | 1045.2 |
| 20260506155328 | 67 | 264 | 4.0 | 9.0 | 0.00 | 0.13 | 0.00 | 53 | 1045.1 |
| 20260506155225 | 67 | 264 | 4.0 | 9.0 | 0.00 | 0.13 | 0.00 | 52 | 1045.1 |
| 20260506155139 | 67 | 264 | 5.0 | 9.0 | 0.00 | 0.13 | 0.00 | 52 | 1045.1 |
| 20260506155125 | 67 | 264 | 5.0 | 11.0 | 0.00 | 0.13 | 0.00 | 52 | 1045.1 |
| 20260506155027 | 67 | 264 | 5.0 | 11.0 | 0.00 | 0.13 | 0.00 | 52 | 1045.1 |
| 20260506154951 | 67 | 264 | 5.0 | 11.0 | 0.00 | 0.13 | 0.00 | 52 | 1045.1 |
| 20260506154944 | 67 | 264 | 5.0 | 11.0 | 0.00 | 0.13 | 0.00 | 52 | 1045.1 |
| 20260506154638 | 68 | 246 | 4.0 | 11.0 | 0.00 | 0.13 | 0.00 | 52 | 1045.1 |
| 20260506154620 | 68 | 227 | 4.0 | 11.0 | 0.00 | 0.13 | 0.00 | 52 | 1045.1 |
| 20260506154557 | 68 | 242 | 4.0 | 11.0 | 0.00 | 0.13 | 0.00 | 51 | 1045.1 |
| 20260506154550 | 68 | 184 | 4.0 | 11.0 | 0.00 | 0.14 | 0.00 | 51 | 1045.0 |
| 20260506154538 | 68 | 187 | 4.0 | 12.0 | 0.00 | 0.14 | 0.00 | 51 | 1045.1 |
| 20260506154530 | 68 | 187 | 5.0 | 12.0 | 0.00 | 0.14 | 0.00 | 52 | 1045.2 |
| 20260506154519 | 68 | 185 | 4.0 | 12.0 | 0.00 | 0.14 | 0.00 | 52 | 1045.1 |
| 20260506154512 | 68 | 204 | 4.0 | 12.0 | 0.00 | 0.14 | 0.00 | 52 | 1045.1 |
| 20260506154245 | 68 | 192 | 5.0 | 12.0 | 0.00 | 0.15 | 0.00 | 53 | 1045.1 |
| 20260506153748 | 68 | 245 | 5.0 | 12.0 | 0.00 | 0.15 | 0.00 | 52 | 1045.1 |
| 20260506153735 | 68 | 255 | 6.0 | 12.0 | 0.00 | 0.15 | 0.00 | 52 | 1045.1 |
| 20260506153508 | 68 | 209 | 5.0 | 9.0 | 0.00 | 0.16 | 0.00 | 51 | 1045.2 |
| 20260506153241 | 68 | 174 | 5.0 | 9.0 | 0.00 | 0.17 | 0.00 | 51 | 1045.1 |
| 20260506153234 | 68 | 168 | 5.0 | 9.0 | 0.00 | 0.17 | 0.00 | 51 | 1045.1 |
| 20260506153223 | 68 | 162 | 5.0 | 9.0 | 0.00 | 0.17 | 0.00 | 52 | 1045.1 |
| 20260506153204 | 68 | 177 | 5.0 | 9.0 | 0.00 | 0.18 | 0.00 | 51 | 1045.1 |
| 20260506153142 | 68 | 179 | 5.0 | 9.0 | 0.00 | 0.19 | 0.00 | 51 | 1045.2 |
| 20260506153133 | 68 | 228 | 5.0 | 9.0 | 0.00 | 0.20 | 0.00 | 52 | 1045.2 |
| 20260506152908 | 68 | 229 | 5.0 | 9.0 | 0.00 | 0.20 | 0.00 | 53 | 1045.2 |
| 20260506152854 | 68 | 226 | 4.0 | 9.0 | 0.00 | 0.21 | 0.00 | 52 | 1045.1 |
| 20260506152841 | 68 | 188 | 4.0 | 9.0 | 0.00 | 0.23 | 0.00 | 52 | 1045.1 |
| 20260506152831 | 68 | 189 | 4.0 | 9.0 | 0.00 | 0.24 | 0.00 | 51 | 1045.2 |
| 20260506152824 | 68 | 206 | 4.0 | 8.0 | 0.00 | 0.24 | 0.00 | 53 | 1045.2 |
| 20260506152341 | 68 | 247 | 5.0 | 11.0 | 0.00 | 0.27 | 0.00 | 52 | 1045.2 |
| 20260506152327 | 68 | 247 | 5.0 | 11.0 | 0.00 | 0.28 | 0.00 | 52 | 1045.1 |
| 20260506152321 | 68 | 228 | 5.0 | 11.0 | 0.00 | 0.28 | 0.00 | 52 | 1045.2 |
| 20260506152311 | 68 | 228 | 4.0 | 11.0 | 0.00 | 0.28 | 0.00 | 53 | 1045.2 |
| 20260506152043 | 68 | 221 | 4.0 | 11.0 | 0.00 | 0.28 | 0.00 | 51 | 1045.2 |
| 20260506151336 | 68 | 222 | 3.0 | 11.0 | 0.00 | 0.29 | 0.00 | 50 | 1045.2 |
| 20260506151326 | 68 | 221 | 3.0 | 11.0 | 0.00 | 0.29 | 0.00 | 51 | 1045.4 |
| 20260506151004 | 68 | 149 | 2.0 | 7.0 | 0.00 | 0.29 | 0.00 | 51 | 1045.4 |
| 20260506150904 | 68 | 231 | 3.0 | 7.0 | 0.00 | 0.29 | 0.00 | 51 | 1045.4 |
| 20260506150803 | 68 | 233 | 3.0 | 9.0 | 0.00 | 0.29 | 0.00 | 51 | 1045.4 |
| 20260506150703 | 68 | 233 | 3.0 | 9.0 | 0.00 | 0.29 | 0.00 | 51 | 1045.4 |
| 20260506150605 | 68 | 233 | 3.0 | 9.0 | 0.00 | 0.29 | 0.00 | 52 | 1045.4 |
| 20260506150506 | 68 | 150 | 3.0 | 9.0 | 0.00 | 0.29 | 0.00 | 50 | 1045.4 |
| 20260506150434 | 68 | 149 | 3.0 | 9.0 | 0.00 | 0.29 | 0.00 | 51 | 1045.4 |
| 20260506150424 | 69 | 227 | 3.0 | 9.0 | 0.00 | 0.29 | 0.00 | 50 | 1045.4 |
| 20260506150104 | 69 | 231 | 3.0 | 9.0 | 0.00 | 0.29 | 0.00 | 49 | 1045.5 |
| 20260506150004 | 69 | 231 | 3.0 | 9.0 | 0.00 | 0.29 | 0.00 | 49 | 1045.5 |
| 20260506145903 | 69 | 233 | 3.0 | 9.0 | 0.00 | 0.29 | 0.00 | 50 | 1045.5 |
| 20260506145804 | 69 | 191 | 3.0 | 9.0 | 0.00 | 0.29 | 0.00 | 50 | 1045.5 |
| 20260506145705 | 69 | 200 | 3.0 | 7.0 | 0.00 | 0.29 | 0.00 | 50 | 1045.5 |
| 20260506145633 | 69 | 206 | 3.0 | 7.0 | 0.00 | 0.29 | 0.00 | 50 | 1045.5 |
| 20260506145603 | 69 | 206 | 3.0 | 7.0 | 0.00 | 0.29 | 0.00 | 50 | 1045.5 |
| 20260506145500 | 69 | 206 | 3.0 | 7.0 | 0.00 | 0.29 | 0.00 | 50 | 1045.5 |
| 20260506145424 | 70 | 206 | 3.0 | 7.0 | 0.00 | 0.29 | 0.00 | 49 | 1045.5 |
| 20260506145414 | 70 | 206 | 4.0 | 7.0 | 0.00 | 0.29 | 0.00 | 48 | 1045.5 |
| 20260506145358 | 70 | 207 | 4.0 | 8.0 | 0.00 | 0.29 | 0.00 | 48 | 1045.5 |
| 20260506145348 | 70 | 206 | 4.0 | 8.0 | 0.00 | 0.29 | 0.00 | 48 | 1045.5 |
| 20260506145338 | 70 | 207 | 4.0 | 8.0 | 0.00 | 0.29 | 0.00 | 48 | 1045.5 |
| 20260506144801 | 70 | 211 | 4.0 | 8.0 | 0.00 | 0.29 | 0.00 | 48 | 1045.5 |
| 20260506144701 | 70 | 212 | 3.0 | 8.0 | 0.00 | 0.29 | 0.00 | 48 | 1045.5 |
| 20260506144632 | 70 | 208 | 3.0 | 8.0 | 0.00 | 0.29 | 0.00 | 48 | 1045.5 |
| 20260506144601 | 70 | 208 | 3.0 | 8.0 | 0.00 | 0.29 | 0.00 | 48 | 1045.5 |
| 20260506144501 | 70 | 208 | 3.0 | 8.0 | 0.00 | 0.29 | 0.00 | 48 | 1045.5 |
| 20260506144402 | 70 | 208 | 3.0 | 8.0 | 0.00 | 0.29 | 0.00 | 48 | 1045.5 |
| 20260506144305 | 71 | 208 | 3.0 | 8.0 | 0.00 | 0.29 | 0.00 | 48 | 1045.6 |
| 20260506144202 | 71 | 256 | 3.0 | 8.0 | 0.00 | 0.29 | 0.00 | 48 | 1045.5 |
| 20260506144131 | 71 | 256 | 4.0 | 8.0 | 0.00 | 0.29 | 0.00 | 48 | 1045.5 |
| 20260506144101 | 71 | 258 | 4.0 | 8.0 | 0.00 | 0.29 | 0.00 | 47 | 1045.5 |
| 20260506144018 | 71 | 203 | 4.0 | 10.0 | 0.00 | 0.29 | 0.00 | 47 | 1045.5 |
| 20260506144009 | 71 | 203 | 4.0 | 10.0 | 0.00 | 0.29 | 0.00 | 46 | 1045.6 |
| 20260506143958 | 71 | 203 | 4.0 | 10.0 | 0.00 | 0.29 | 0.00 | 46 | 1045.6 |
| 20260506143947 | 71 | 202 | 5.0 | 10.0 | 0.00 | 0.29 | 0.00 | 47 | 1045.6 |
| 20260506143938 | 71 | 202 | 5.0 | 10.0 | 0.00 | 0.29 | 0.00 | 46 | 1045.6 |
| 20260506143438 | 71 | 203 | 5.0 | 10.0 | 0.00 | 0.29 | 0.00 | 46 | 1045.6 |
| 20260506143427 | 71 | 203 | 5.0 | 10.0 | 0.00 | 0.29 | 0.00 | 46 | 1045.7 |
| 20260506143131 | 71 | 196 | 5.0 | 10.0 | 0.00 | 0.29 | 0.00 | 47 | 1045.7 |
| 20260506143120 | 71 | 218 | 5.0 | 10.0 | 0.00 | 0.29 | 0.00 | 47 | 1045.7 |
| 20260506143105 | 71 | 197 | 4.0 | 8.0 | 0.00 | 0.29 | 0.00 | 46 | 1045.7 |
| 20260506143057 | 71 | 197 | 5.0 | 9.0 | 0.00 | 0.29 | 0.00 | 46 | 1045.7 |
| 20260506143050 | 71 | 201 | 4.0 | 9.0 | 0.00 | 0.29 | 0.00 | 46 | 1045.7 |
| 20260506143040 | 71 | 216 | 4.0 | 9.0 | 0.00 | 0.29 | 0.00 | 46 | 1045.6 |
| 20260506143031 | 71 | 249 | 4.0 | 9.0 | 0.00 | 0.29 | 0.00 | 45 | 1045.7 |
| 20260506143024 | 71 | 255 | 4.0 | 9.0 | 0.00 | 0.29 | 0.00 | 45 | 1045.7 |
| 20260506143010 | 71 | 258 | 4.0 | 9.0 | 0.00 | 0.29 | 0.00 | 46 | 1045.6 |
| 20260506142949 | 71 | 260 | 4.0 | 9.0 | 0.00 | 0.29 | 0.00 | 45 | 1045.6 |
| 20260506142502 | 71 | 222 | 4.0 | 9.0 | 0.00 | 0.29 | 0.00 | 47 | 1045.7 |
| 20260506142451 | 71 | 239 | 4.0 | 9.0 | 0.00 | 0.29 | 0.00 | 47 | 1045.7 |
| 20260506142218 | 71 | 252 | 3.0 | 7.0 | 0.00 | 0.29 | 0.00 | 47 | 1045.7 |
| 20260506141948 | 71 | 216 | 4.0 | 8.0 | 0.00 | 0.29 | 0.00 | 46 | 1045.7 |
| 20260506141942 | 71 | 245 | 4.0 | 8.0 | 0.00 | 0.29 | 0.00 | 46 | 1045.7 |
| 20260506141401 | 70 | 246 | 4.0 | 13.0 | 0.00 | 0.29 | 0.00 | 46 | 1045.7 |
| 20260506141303 | 70 | 244 | 4.0 | 13.0 | 0.00 | 0.29 | 0.00 | 46 | 1045.8 |
| 20260506141214 | 70 | 245 | 5.0 | 13.0 | 0.00 | 0.29 | 0.00 | 48 | 1045.8 |
| 20260506141158 | 70 | 245 | 5.0 | 13.0 | 0.00 | 0.29 | 0.00 | 48 | 1045.8 |
| 20260506141144 | 70 | 245 | 5.0 | 13.0 | 0.00 | 0.29 | 0.00 | 46 | 1045.8 |
| 20260506140921 | 70 | 243 | 5.0 | 13.0 | 0.00 | 0.29 | 0.00 | 45 | 1045.8 |
| 20260506140635 | 70 | 186 | 5.0 | 13.0 | 0.00 | 0.29 | 0.00 | 45 | 1045.8 |
| 20260506140559 | 70 | 246 | 5.0 | 12.0 | 0.00 | 0.29 | 0.00 | 45 | 1045.8 |
| 20260506140459 | 70 | 241 | 5.0 | 9.0 | 0.00 | 0.29 | 0.00 | 45 | 1045.9 |
| 20260506140356 | 70 | 255 | 5.0 | 9.0 | 0.00 | 0.29 | 0.00 | 45 | 1045.8 |
| 20260506140256 | 70 | 256 | 5.0 | 9.0 | 0.00 | 0.29 | 0.00 | 46 | 1045.8 |
| 20260506140157 | 70 | 231 | 5.0 | 9.0 | 0.00 | 0.29 | 0.00 | 46 | 1045.8 |
| 20260506140134 | 70 | 230 | 5.0 | 10.0 | 0.00 | 0.29 | 0.00 | 47 | 1045.9 |
| 20260506140056 | 70 | 229 | 5.0 | 10.0 | 0.00 | 0.29 | 0.00 | 46 | 1045.9 |
| 20260506135957 | 70 | 222 | 5.0 | 10.0 | 0.00 | 0.29 | 0.00 | 47 | 1045.9 |
| 20260506135857 | 70 | 225 | 5.0 | 10.0 | 0.00 | 0.29 | 0.00 | 46 | 1045.9 |
| 20260506135757 | 70 | 237 | 5.0 | 10.0 | 0.00 | 0.29 | 0.00 | 46 | 1045.9 |
| 20260506135653 | 70 | 233 | 5.0 | 10.0 | 0.00 | 0.29 | 0.00 | 46 | 1045.9 |
| 20260506135644 | 70 | 233 | 6.0 | 10.0 | 0.00 | 0.29 | 0.00 | 46 | 1045.9 |
| 20260506135551 | 70 | 230 | 6.0 | 10.0 | 0.00 | 0.29 | 0.00 | 46 | 1045.9 |
| 20260506135450 | 70 | 228 | 6.0 | 10.0 | 0.00 | 0.29 | 0.00 | 46 | 1045.9 |
| 20260506135350 | 71 | 208 | 6.0 | 10.0 | 0.00 | 0.29 | 0.00 | 45 | 1045.9 |
| 20260506135327 | 71 | 206 | 6.0 | 10.0 | 0.00 | 0.29 | 0.00 | 45 | 1045.9 |
| 20260506135317 | 71 | 206 | 6.0 | 10.0 | 0.00 | 0.29 | 0.00 | 46 | 1045.9 |
| 20260506135310 | 71 | 190 | 6.0 | 10.0 | 0.00 | 0.29 | 0.00 | 46 | 1045.9 |
| 20260506134945 | 71 | 190 | 6.0 | 10.0 | 0.00 | 0.29 | 0.00 | 46 | 1045.9 |
| 20260506134845 | 71 | 229 | 6.0 | 10.0 | 0.00 | 0.29 | 0.00 | 47 | 1046.0 |
| 20260506134745 | 71 | 233 | 6.0 | 10.0 | 0.00 | 0.29 | 0.00 | 46 | 1046.0 |
| 20260506134703 | 70 | 245 | 6.0 | 10.0 | 0.00 | 0.29 | 0.00 | 47 | 1046.0 |
| 20260506134653 | 70 | 246 | 6.0 | 10.0 | 0.00 | 0.29 | 0.00 | 47 | 1046.0 |
| 20260506134643 | 70 | 243 | 6.0 | 10.0 | 0.00 | 0.29 | 0.00 | 48 | 1046.0 |
| 20260506134630 | 70 | 241 | 5.0 | 10.0 | 0.00 | 0.29 | 0.00 | 48 | 1046.0 |
| 20260506134620 | 70 | 255 | 5.0 | 10.0 | 0.00 | 0.29 | 0.00 | 48 | 1046.0 |
| 20260506134349 | 70 | 229 | 5.0 | 10.0 | 0.00 | 0.29 | 0.00 | 50 | 1046.1 |
| 20260506134048 | 70 | 232 | 5.0 | 13.0 | 0.00 | 0.29 | 0.00 | 50 | 1046.0 |
| 20260506134039 | 69 | 273 | 6.0 | 13.0 | 0.00 | 0.29 | 0.00 | 49 | 1046.1 |
| 20260506134032 | 69 | 268 | 5.0 | 13.0 | 0.00 | 0.29 | 0.00 | 50 | 1046.1 |
| 20260506134020 | 69 | 242 | 5.0 | 13.0 | 0.00 | 0.29 | 0.00 | 51 | 1046.1 |
| 20260506134003 | 69 | 260 | 5.0 | 13.0 | 0.00 | 0.29 | 0.00 | 50 | 1046.1 |
| 20260506133957 | 69 | 259 | 5.0 | 13.0 | 0.00 | 0.29 | 0.00 | 50 | 1046.1 |
| 20260506133725 | 69 | 226 | 5.0 | 13.0 | 0.00 | 0.29 | 0.00 | 51 | 1046.1 |
| 20260506133717 | 69 | 222 | 4.0 | 13.0 | 0.00 | 0.29 | 0.00 | 53 | 1046.1 |
| 20260506133710 | 68 | 266 | 4.0 | 13.0 | 0.00 | 0.29 | 0.00 | 53 | 1046.1 |
| 20260506133440 | 68 | 285 | 4.0 | 13.0 | 0.00 | 0.29 | 0.00 | 52 | 1046.1 |
| 20260506133426 | 68 | 240 | 3.0 | 9.0 | 0.00 | 0.29 | 0.00 | 52 | 1046.1 |
| 20260506132710 | 68 | 235 | 4.0 | 9.0 | 0.00 | 0.29 | 0.00 | 52 | 1046.2 |
| 20260506132700 | 68 | 233 | 4.0 | 9.0 | 0.00 | 0.29 | 0.00 | 51 | 1046.1 |
| 20260506132653 | 68 | 104 | 4.0 | 9.0 | 0.00 | 0.29 | 0.00 | 50 | 1046.2 |
| 20260506132645 | 68 | 103 | 4.0 | 9.0 | 0.00 | 0.29 | 0.00 | 49 | 1046.1 |
| 20260506132634 | 68 | 103 | 4.0 | 9.0 | 0.00 | 0.29 | 0.00 | 48 | 1046.2 |
| 20260506132352 | 68 | 147 | 4.0 | 8.0 | 0.00 | 0.29 | 0.00 | 47 | 1046.1 |
| 20260506132122 | 68 | 126 | 3.0 | 8.0 | 0.00 | 0.29 | 0.00 | 48 | 1046.2 |
| 20260506131854 | 68 | 164 | 3.0 | 8.0 | 0.00 | 0.29 | 0.00 | 49 | 1046.2 |
| 20260506131615 | 68 | 164 | 3.0 | 8.0 | 0.00 | 0.29 | 0.00 | 49 | 1046.3 |
| 20260506131518 | 68 | 164 | 4.0 | 8.0 | 0.00 | 0.29 | 0.00 | 48 | 1046.3 |
| 20260506131413 | 68 | 164 | 4.0 | 10.0 | 0.00 | 0.29 | 0.00 | 50 | 1046.2 |
| 20260506131313 | 68 | 166 | 4.0 | 10.0 | 0.00 | 0.29 | 0.00 | 50 | 1046.3 |
| 20260506131259 | 68 | 166 | 4.0 | 10.0 | 0.00 | 0.29 | 0.00 | 50 | 1046.2 |
| 20260506131247 | 68 | 166 | 4.0 | 10.0 | 0.00 | 0.29 | 0.00 | 50 | 1046.3 |
| 20260506131240 | 68 | 167 | 4.0 | 10.0 | 0.00 | 0.29 | 0.00 | 49 | 1046.3 |
| 20260506131228 | 69 | 167 | 4.0 | 10.0 | 0.00 | 0.29 | 0.00 | 49 | 1046.3 |
| 20260506131003 | 69 | 160 | 4.0 | 10.0 | 0.00 | 0.29 | 0.00 | 48 | 1046.3 |
| 20260506130946 | 69 | 223 | 3.0 | 10.0 | 0.00 | 0.29 | 0.00 | 47 | 1046.3 |
| 20260506130934 | 69 | 225 | 3.0 | 10.0 | 0.00 | 0.29 | 0.00 | 47 | 1046.3 |
| 20260506130924 | 69 | 228 | 3.0 | 10.0 | 0.00 | 0.29 | 0.00 | 47 | 1046.3 |
| 20260506130658 | 69 | 258 | 2.0 | 8.0 | 0.00 | 0.29 | 0.00 | 49 | 1046.4 |
| 20260506130648 | 69 | 269 | 2.0 | 6.0 | 0.00 | 0.29 | 0.00 | 48 | 1046.4 |
| 20260506130640 | 69 | 269 | 2.0 | 6.0 | 0.00 | 0.29 | 0.00 | 47 | 1046.4 |
| 20260506130623 | 69 | 270 | 3.0 | 6.0 | 0.00 | 0.29 | 0.00 | 47 | 1046.3 |
| 20260506130616 | 69 | 270 | 3.0 | 7.0 | 0.00 | 0.29 | 0.00 | 47 | 1046.4 |
| 20260506130343 | 69 | 269 | 4.0 | 9.0 | 0.00 | 0.29 | 0.00 | 48 | 1046.3 |
| 20260506130331 | 69 | 270 | 4.0 | 9.0 | 0.00 | 0.29 | 0.00 | 48 | 1046.3 |
| 20260506125845 | 69 | 270 | 4.0 | 9.0 | 0.00 | 0.29 | 0.00 | 48 | 1046.3 |
| 20260506125339 | 69 | 270 | 5.0 | 9.0 | 0.00 | 0.29 | 0.00 | 49 | 1046.3 |
| 20260506125103 | 69 | 270 | 5.0 | 9.0 | 0.00 | 0.29 | 0.00 | 49 | 1046.4 |
| 20260506125004 | 68 | 270 | 4.0 | 9.0 | 0.00 | 0.29 | 0.00 | 49 | 1046.4 |
| 20260506124904 | 68 | 272 | 4.0 | 9.0 | 0.00 | 0.29 | 0.00 | 50 | 1046.4 |
| 20260506124803 | 68 | 275 | 4.0 | 8.0 | 0.00 | 0.29 | 0.00 | 50 | 1046.4 |
| 20260506124704 | 68 | 263 | 4.0 | 8.0 | 0.00 | 0.29 | 0.00 | 50 | 1046.4 |
| 20260506124620 | 68 | 191 | 4.0 | 7.0 | 0.00 | 0.29 | 0.00 | 51 | 1046.4 |
| 20260506124603 | 68 | 190 | 4.0 | 7.0 | 0.00 | 0.29 | 0.00 | 51 | 1046.4 |
| 20260506124504 | 68 | 189 | 4.0 | 7.0 | 0.00 | 0.29 | 0.00 | 51 | 1046.4 |
| 20260506124440 | 68 | 182 | 4.0 | 8.0 | 0.00 | 0.29 | 0.00 | 51 | 1046.4 |
| 20260506124430 | 67 | 181 | 3.0 | 8.0 | 0.00 | 0.29 | 0.00 | 50 | 1046.4 |
| 20260506124418 | 67 | 181 | 4.0 | 8.0 | 0.00 | 0.29 | 0.00 | 51 | 1046.4 |
| 20260506124405 | 67 | 181 | 3.0 | 8.0 | 0.00 | 0.29 | 0.00 | 50 | 1046.4 |
| 20260506124140 | 68 | 181 | 4.0 | 8.0 | 0.00 | 0.29 | 0.00 | 49 | 1046.3 |
| 20260506124132 | 68 | 182 | 4.0 | 8.0 | 0.00 | 0.29 | 0.00 | 49 | 1046.4 |
| 20260506124125 | 67 | 182 | 3.0 | 8.0 | 0.00 | 0.29 | 0.00 | 51 | 1046.3 |
| 20260506124111 | 67 | 183 | 3.0 | 8.0 | 0.00 | 0.29 | 0.00 | 52 | 1046.3 |
| 20260506124101 | 67 | 183 | 3.0 | 8.0 | 0.00 | 0.29 | 0.00 | 53 | 1046.4 |
| 20260506123333 | 67 | 185 | 3.0 | 8.0 | 0.00 | 0.29 | 0.00 | 55 | 1046.3 |
| 20260506123324 | 66 | 186 | 3.0 | 8.0 | 0.00 | 0.29 | 0.00 | 55 | 1046.3 |
| 20260506123314 | 66 | 174 | 3.0 | 8.0 | 0.00 | 0.29 | 0.00 | 55 | 1046.3 |
| 20260506123303 | 66 | 174 | 3.0 | 8.0 | 0.00 | 0.29 | 0.00 | 53 | 1046.3 |
| 20260506123253 | 66 | 114 | 3.0 | 8.0 | 0.00 | 0.29 | 0.00 | 52 | 1046.3 |
| 20260506122703 | 66 | 110 | 3.0 | 8.0 | 0.00 | 0.29 | 0.00 | 52 | 1046.4 |
| 20260506122650 | 66 | 112 | 3.0 | 8.0 | 0.00 | 0.29 | 0.00 | 52 | 1046.5 |
| 20260506122643 | 66 | 112 | 3.0 | 8.0 | 0.00 | 0.29 | 0.00 | 55 | 1046.5 |
| 20260506122634 | 65 | 99 | 3.0 | 8.0 | 0.00 | 0.29 | 0.00 | 54 | 1046.4 |
| 20260506122627 | 65 | 143 | 3.0 | 7.0 | 0.00 | 0.29 | 0.00 | 54 | 1046.5 |
| 20260506122616 | 65 | 143 | 3.0 | 7.0 | 0.00 | 0.29 | 0.00 | 54 | 1046.5 |
| 20260506122103 | 65 | 102 | 4.0 | 7.0 | 0.00 | 0.29 | 0.00 | 53 | 1046.5 |
| 20260506122006 | 65 | 95 | 4.0 | 7.0 | 0.00 | 0.29 | 0.00 | 53 | 1046.5 |
| 20260506121903 | 65 | 95 | 4.0 | 7.0 | 0.00 | 0.29 | 0.00 | 53 | 1046.5 |
| 20260506121803 | 65 | 157 | 4.0 | 6.0 | 0.00 | 0.29 | 0.00 | 53 | 1046.5 |
| 20260506121749 | 65 | 157 | 4.0 | 6.0 | 0.00 | 0.29 | 0.00 | 54 | 1046.5 |
| 20260506121731 | 65 | 157 | 4.0 | 6.0 | 0.00 | 0.29 | 0.00 | 55 | 1046.6 |
| 20260506121718 | 65 | 157 | 4.0 | 6.0 | 0.00 | 0.29 | 0.00 | 54 | 1046.6 |
| 20260506121710 | 65 | 157 | 3.0 | 6.0 | 0.00 | 0.30 | 0.00 | 52 | 1046.6 |
| 20260506121221 | 65 | 156 | 2.0 | 6.0 | 0.00 | 0.30 | 0.00 | 51 | 1046.6 |
| 20260506121212 | 65 | 158 | 2.0 | 6.0 | 0.00 | 0.30 | 0.00 | 51 | 1046.6 |
| 20260506121147 | 65 | 164 | 2.0 | 5.0 | 0.00 | 0.30 | 0.00 | 52 | 1046.6 |
| 20260506120920 | 65 | 164 | 1.0 | 4.0 | 0.00 | 0.30 | 0.00 | 52 | 1046.6 |
| 20260506120620 | 65 | 164 | 1.0 | 4.0 | 0.00 | 0.30 | 0.00 | 53 | 1046.6 |
| 20260506120556 | 66 | 165 | 1.0 | 5.0 | 0.00 | 0.30 | 0.00 | 53 | 1046.6 |
| 20260506120455 | 66 | 164 | 1.0 | 5.0 | 0.00 | 0.30 | 0.00 | 53 | 1046.6 |
| 20260506120403 | 66 | 165 | 1.0 | 5.0 | 0.00 | 0.30 | 0.00 | 52 | 1046.6 |
| 20260506120353 | 65 | 165 | 1.0 | 5.0 | 0.00 | 0.30 | 0.00 | 51 | 1046.6 |
| 20260506120341 | 66 | 165 | 1.0 | 5.0 | 0.00 | 0.30 | 0.00 | 52 | 1046.6 |
| 20260506120055 | 66 | 165 | 1.0 | 5.0 | 0.00 | 0.30 | 0.00 | 52 | 1046.6 |
| 20260506115955 | 66 | 165 | 1.0 | 5.0 | 0.00 | 0.30 | 0.00 | 53 | 1046.6 |
| 20260506115855 | 66 | 165 | 1.0 | 5.0 | 0.00 | 0.30 | 0.00 | 53 | 1046.6 |
| 20260506115755 | 66 | 165 | 2.0 | 5.0 | 0.00 | 0.30 | 0.00 | 53 | 1046.6 |
| 20260506115655 | 66 | 165 | 2.0 | 5.0 | 0.00 | 0.30 | 0.00 | 52 | 1046.7 |
| 20260506115636 | 66 | 166 | 2.0 | 5.0 | 0.00 | 0.30 | 0.00 | 52 | 1046.6 |
| 20260506115629 | 66 | 165 | 2.0 | 5.0 | 0.00 | 0.30 | 0.00 | 52 | 1046.6 |
| 20260506115619 | 66 | 160 | 2.0 | 5.0 | 0.00 | 0.30 | 0.00 | 55 | 1046.6 |
| 20260506115251 | 66 | 160 | 2.0 | 5.0 | 0.00 | 0.30 | 0.00 | 53 | 1046.6 |
| 20260506115122 | 66 | 160 | 2.0 | 5.0 | 0.00 | 0.30 | 0.00 | 53 | 1046.7 |
| 20260506115054 | 66 | 160 | 2.0 | 5.0 | 0.00 | 0.30 | 0.00 | 52 | 1046.7 |
| 20260506114951 | 66 | 160 | 2.0 | 5.0 | 0.00 | 0.30 | 0.00 | 53 | 1046.6 |
| 20260506114855 | 66 | 160 | 2.0 | 5.0 | 0.00 | 0.30 | 0.00 | 52 | 1046.7 |
| 20260506114751 | 66 | 160 | 2.0 | 5.0 | 0.00 | 0.30 | 0.00 | 52 | 1046.7 |
| 20260506114650 | 66 | 160 | 2.0 | 5.0 | 0.00 | 0.30 | 0.00 | 53 | 1046.7 |
| 20260506114619 | 66 | 160 | 2.0 | 5.0 | 0.00 | 0.30 | 0.00 | 53 | 1046.7 |
| 20260506114552 | 66 | 160 | 2.0 | 5.0 | 0.00 | 0.30 | 0.00 | 53 | 1046.7 |
| 20260506114451 | 66 | 159 | 2.0 | 5.0 | 0.00 | 0.30 | 0.00 | 52 | 1046.7 |
| 20260506114351 | 66 | 159 | 2.0 | 6.0 | 0.00 | 0.30 | 0.00 | 52 | 1046.7 |
| 20260506114252 | 66 | 159 | 3.0 | 6.0 | 0.00 | 0.30 | 0.00 | 53 | 1046.7 |
| 20260506114151 | 66 | 159 | 2.0 | 6.0 | 0.00 | 0.30 | 0.00 | 53 | 1046.7 |
| 20260506114119 | 66 | 159 | 2.0 | 6.0 | 0.00 | 0.30 | 0.00 | 54 | 1046.7 |
| 20260506114052 | 66 | 159 | 2.0 | 6.0 | 0.00 | 0.30 | 0.00 | 54 | 1046.7 |
| 20260506113951 | 66 | 159 | 2.0 | 6.0 | 0.00 | 0.30 | 0.00 | 55 | 1046.7 |
| 20260506113905 | 66 | 159 | 2.0 | 6.0 | 0.00 | 0.30 | 0.00 | 55 | 1046.7 |
| 20260506113856 | 65 | 158 | 2.0 | 6.0 | 0.00 | 0.30 | 0.00 | 55 | 1046.7 |
| 20260506113844 | 65 | 160 | 3.0 | 6.0 | 0.00 | 0.30 | 0.00 | 55 | 1046.7 |
| 20260506113551 | 65 | 159 | 2.0 | 6.0 | 0.00 | 0.30 | 0.00 | 54 | 1046.7 |
| 20260506113451 | 65 | 159 | 2.0 | 6.0 | 0.00 | 0.30 | 0.00 | 55 | 1046.8 |
| 20260506113351 | 65 | 158 | 2.0 | 5.0 | 0.00 | 0.30 | 0.00 | 54 | 1046.7 |
| 20260506113251 | 65 | 157 | 2.0 | 5.0 | 0.00 | 0.30 | 0.00 | 54 | 1046.7 |
| 20260506113151 | 65 | 157 | 2.0 | 6.0 | 0.00 | 0.30 | 0.00 | 53 | 1046.7 |
| 20260506113120 | 65 | 157 | 2.0 | 6.0 | 0.00 | 0.30 | 0.00 | 53 | 1046.7 |
| 20260506113051 | 65 | 156 | 2.0 | 6.0 | 0.00 | 0.30 | 0.00 | 53 | 1046.7 |
| 20260506112951 | 65 | 157 | 3.0 | 7.0 | 0.00 | 0.30 | 0.00 | 54 | 1046.7 |
| 20260506112851 | 65 | 156 | 3.0 | 7.0 | 0.00 | 0.30 | 0.00 | 55 | 1046.7 |
| 20260506112751 | 65 | 157 | 3.0 | 7.0 | 0.00 | 0.30 | 0.00 | 55 | 1046.7 |
| 20260506112643 | 65 | 156 | 3.0 | 7.0 | 0.00 | 0.30 | 0.00 | 55 | 1046.7 |
| 20260506112615 | 65 | 156 | 3.0 | 7.0 | 0.00 | 0.30 | 0.00 | 54 | 1046.7 |
| 20260506112543 | 65 | 156 | 3.0 | 7.0 | 0.00 | 0.30 | 0.00 | 54 | 1046.7 |
| 20260506112443 | 65 | 156 | 3.0 | 7.0 | 0.00 | 0.30 | 0.00 | 53 | 1046.7 |
| 20260506112409 | 65 | 156 | 3.0 | 7.0 | 0.00 | 0.30 | 0.00 | 53 | 1046.7 |
| 20260506112403 | 65 | 156 | 3.0 | 7.0 | 0.00 | 0.30 | 0.00 | 52 | 1046.8 |
| 20260506112349 | 65 | 156 | 3.0 | 7.0 | 0.00 | 0.30 | 0.00 | 54 | 1046.8 |
| 20260506112338 | 65 | 156 | 3.0 | 7.0 | 0.00 | 0.30 | 0.00 | 56 | 1046.8 |
| 20260506112329 | 65 | 156 | 3.0 | 7.0 | 0.00 | 0.31 | 0.00 | 56 | 1046.8 |
| 20260506112058 | 65 | 69 | 2.0 | 5.0 | 0.00 | 0.31 | 0.00 | 57 | 1046.8 |
| 20260506112035 | 65 | 69 | 2.0 | 5.0 | 0.00 | 0.31 | 0.00 | 58 | 1046.8 |
| 20260506111804 | 65 | 69 | 2.0 | 5.0 | 0.00 | 0.31 | 0.00 | 57 | 1046.8 |
| 20260506111443 | 64 | 70 | 2.0 | 5.0 | 0.00 | 0.31 | 0.00 | 55 | 1046.8 |
| 20260506111343 | 64 | 73 | 2.0 | 4.0 | 0.00 | 0.31 | 0.00 | 55 | 1046.8 |
| 20260506111243 | 64 | 74 | 2.0 | 5.0 | 0.00 | 0.31 | 0.00 | 58 | 1046.8 |
| 20260506111143 | 64 | 73 | 2.0 | 7.0 | 0.00 | 0.31 | 0.00 | 58 | 1046.8 |
| 20260506111115 | 64 | 74 | 2.0 | 7.0 | 0.00 | 0.31 | 0.00 | 58 | 1046.8 |
| 20260506111045 | 64 | 74 | 2.0 | 7.0 | 0.00 | 0.31 | 0.00 | 56 | 1046.9 |
| 20260506110954 | 64 | 73 | 2.0 | 7.0 | 0.00 | 0.31 | 0.00 | 56 | 1046.9 |
| 20260506110948 | 64 | 74 | 2.0 | 7.0 | 0.00 | 0.31 | 0.00 | 56 | 1046.8 |
| 20260506110935 | 64 | 74 | 3.0 | 7.0 | 0.00 | 0.31 | 0.00 | 56 | 1046.8 |
| 20260506110926 | 64 | 74 | 3.0 | 7.0 | 0.00 | 0.31 | 0.00 | 55 | 1046.8 |
| 20260506110659 | 65 | 74 | 3.0 | 7.0 | 0.00 | 0.31 | 0.00 | 56 | 1046.8 |
| 20260506110647 | 65 | 73 | 4.0 | 7.0 | 0.00 | 0.31 | 0.00 | 56 | 1046.8 |
| 20260506110421 | 65 | 73 | 3.0 | 7.0 | 0.00 | 0.31 | 0.00 | 55 | 1046.8 |
| 20260506110407 | 65 | 76 | 3.0 | 7.0 | 0.00 | 0.31 | 0.00 | 55 | 1046.8 |
| 20260506110358 | 65 | 76 | 3.0 | 7.0 | 0.00 | 0.31 | 0.00 | 54 | 1046.8 |
| 20260506110106 | 65 | 77 | 3.0 | 7.0 | 0.00 | 0.31 | 0.00 | 54 | 1046.9 |
| 20260506105742 | 65 | 84 | 2.0 | 6.0 | 0.00 | 0.31 | 0.00 | 56 | 1046.8 |
| 20260506105616 | 65 | 83 | 2.0 | 5.0 | 0.00 | 0.31 | 0.00 | 55 | 1046.8 |
| 20260506105601 | 65 | 211 | 2.0 | 5.0 | 0.00 | 0.31 | 0.00 | 55 | 1046.8 |
| 20260506105552 | 65 | 210 | 2.0 | 5.0 | 0.00 | 0.31 | 0.00 | 54 | 1046.8 |
| 20260506105540 | 65 | 210 | 2.0 | 5.0 | 0.00 | 0.31 | 0.00 | 55 | 1046.8 |
| 20260506105309 | 65 | 210 | 2.0 | 5.0 | 0.00 | 0.31 | 0.00 | 56 | 1046.8 |
| 20260506105300 | 65 | 210 | 2.0 | 5.0 | 0.00 | 0.31 | 0.00 | 57 | 1046.8 |
| 20260506104939 | 65 | 210 | 2.0 | 5.0 | 0.00 | 0.31 | 0.00 | 56 | 1046.8 |
| 20260506104839 | 65 | 210 | 3.0 | 5.0 | 0.00 | 0.31 | 0.00 | 57 | 1046.9 |
| 20260506104739 | 65 | 210 | 3.0 | 6.0 | 0.00 | 0.31 | 0.00 | 58 | 1046.9 |
| 20260506104627 | 65 | 210 | 3.0 | 6.0 | 0.00 | 0.31 | 0.00 | 58 | 1046.9 |
| 20260506104619 | 65 | 210 | 3.0 | 6.0 | 0.00 | 0.31 | 0.00 | 58 | 1046.9 |
| 20260506104611 | 65 | 210 | 2.0 | 6.0 | 0.00 | 0.31 | 0.00 | 58 | 1046.8 |
| 20260506104601 | 65 | 209 | 2.0 | 6.0 | 0.00 | 0.31 | 0.00 | 58 | 1046.8 |
| 20260506104555 | 65 | 209 | 2.0 | 6.0 | 0.00 | 0.31 | 0.00 | 57 | 1046.8 |
| 20260506104039 | 65 | 208 | 3.0 | 6.0 | 0.00 | 0.31 | 0.00 | 57 | 1046.8 |
| 20260506103939 | 65 | 208 | 3.0 | 6.0 | 0.00 | 0.31 | 0.00 | 58 | 1046.8 |
| 20260506103839 | 65 | 208 | 3.0 | 7.0 | 0.00 | 0.31 | 0.00 | 58 | 1046.9 |
| 20260506103737 | 65 | 206 | 3.0 | 7.0 | 0.00 | 0.31 | 0.00 | 56 | 1046.9 |
| 20260506103636 | 65 | 205 | 4.0 | 7.0 | 0.00 | 0.31 | 0.00 | 58 | 1046.9 |
| 20260506103611 | 65 | 205 | 4.0 | 9.0 | 0.00 | 0.31 | 0.00 | 58 | 1046.9 |
| 20260506103537 | 65 | 205 | 3.0 | 9.0 | 0.00 | 0.31 | 0.00 | 59 | 1046.9 |
| 20260506103436 | 65 | 204 | 4.0 | 9.0 | 0.00 | 0.31 | 0.00 | 58 | 1046.9 |
| 20260506103337 | 65 | 204 | 4.0 | 9.0 | 0.00 | 0.31 | 0.00 | 58 | 1046.9 |
| 20260506103237 | 65 | 204 | 4.0 | 10.0 | 0.00 | 0.31 | 0.00 | 56 | 1046.9 |
| 20260506103155 | 65 | 200 | 4.0 | 10.0 | 0.00 | 0.31 | 0.00 | 56 | 1047.0 |
| 20260506103144 | 65 | 199 | 4.0 | 10.0 | 0.00 | 0.31 | 0.00 | 56 | 1047.0 |
| 20260506103137 | 65 | 200 | 4.0 | 10.0 | 0.00 | 0.31 | 0.00 | 57 | 1047.0 |
| 20260506103124 | 65 | 199 | 4.0 | 10.0 | 0.00 | 0.31 | 0.00 | 57 | 1046.9 |
| 20260506103115 | 65 | 160 | 4.0 | 10.0 | 0.00 | 0.31 | 0.00 | 56 | 1046.9 |
| 20260506102609 | 65 | 163 | 3.0 | 10.0 | 0.00 | 0.31 | 0.00 | 57 | 1047.0 |
| 20260506102532 | 65 | 221 | 4.0 | 10.0 | 0.00 | 0.31 | 0.00 | 56 | 1047.0 |
| 20260506102455 | 65 | 221 | 4.0 | 10.0 | 0.00 | 0.31 | 0.00 | 55 | 1047.0 |
| 20260506102447 | 66 | 101 | 3.0 | 10.0 | 0.00 | 0.31 | 0.00 | 57 | 1047.0 |
| 20260506102436 | 66 | 240 | 3.0 | 10.0 | 0.00 | 0.31 | 0.00 | 56 | 1047.0 |
| 20260506102200 | 66 | 125 | 3.0 | 10.0 | 0.00 | 0.31 | 0.00 | 56 | 1047.0 |
| 20260506102153 | 66 | 125 | 3.0 | 10.0 | 0.00 | 0.31 | 0.00 | 56 | 1047.0 |
| 20260506102142 | 66 | 127 | 3.0 | 10.0 | 0.00 | 0.31 | 0.00 | 55 | 1047.0 |
| 20260506102135 | 66 | 127 | 3.0 | 10.0 | 0.00 | 0.31 | 0.00 | 56 | 1047.0 |
| 20260506101851 | 66 | 126 | 2.0 | 10.0 | 0.00 | 0.31 | 0.00 | 52 | 1047.0 |
| 20260506101842 | 66 | 127 | 2.0 | 10.0 | 0.00 | 0.31 | 0.00 | 52 | 1047.0 |
| 20260506101612 | 66 | 88 | 2.0 | 7.0 | 0.00 | 0.31 | 0.00 | 50 | 1047.0 |
| 20260506101346 | 66 | 316 | 2.0 | 9.0 | 0.00 | 0.31 | 0.00 | 52 | 1047.0 |
| 20260506101109 | 66 | 316 | 2.0 | 9.0 | 0.00 | 0.31 | 0.00 | 53 | 1047.0 |
| 20260506101014 | 66 | 316 | 2.0 | 9.0 | 0.00 | 0.31 | 0.00 | 54 | 1047.0 |
| 20260506100910 | 66 | 316 | 2.0 | 9.0 | 0.00 | 0.31 | 0.00 | 52 | 1047.0 |
| 20260506100808 | 66 | 316 | 3.0 | 9.0 | 0.00 | 0.31 | 0.00 | 53 | 1047.0 |
| 20260506100704 | 66 | 316 | 2.0 | 9.0 | 0.00 | 0.31 | 0.00 | 54 | 1047.0 |
| 20260506100604 | 66 | 315 | 3.0 | 9.0 | 0.00 | 0.31 | 0.00 | 52 | 1047.1 |
| 20260506100503 | 66 | 314 | 3.0 | 9.0 | 0.00 | 0.31 | 0.00 | 51 | 1047.1 |
| 20260506100404 | 66 | 312 | 3.0 | 9.0 | 0.00 | 0.31 | 0.00 | 52 | 1047.1 |
| 20260506100338 | 65 | 312 | 4.0 | 9.0 | 0.00 | 0.31 | 0.00 | 51 | 1047.1 |
| 20260506100331 | 65 | 291 | 4.0 | 8.0 | 0.00 | 0.31 | 0.00 | 51 | 1047.1 |
| 20260506100318 | 65 | 290 | 4.0 | 8.0 | 0.00 | 0.31 | 0.00 | 50 | 1047.1 |
| 20260506100001 | 65 | 291 | 4.0 | 8.0 | 0.00 | 0.31 | 0.00 | 53 | 1047.1 |
| 20260506095910 | 65 | 290 | 4.0 | 8.0 | 0.00 | 0.31 | 0.00 | 54 | 1047.1 |
| 20260506095903 | 65 | 291 | 4.0 | 8.0 | 0.00 | 0.31 | 0.00 | 53 | 1047.1 |
| 20260506095848 | 65 | 291 | 4.0 | 8.0 | 0.00 | 0.31 | 0.00 | 53 | 1047.2 |
| 20260506095620 | 65 | 293 | 4.0 | 8.0 | 0.00 | 0.31 | 0.00 | 54 | 1047.1 |
| 20260506095611 | 65 | 297 | 4.0 | 8.0 | 0.00 | 0.31 | 0.00 | 54 | 1047.2 |
| 20260506095247 | 66 | 359 | 3.0 | 9.0 | 0.00 | 0.31 | 0.00 | 53 | 1047.2 |
| 20260506095143 | 66 | 359 | 3.0 | 9.0 | 0.00 | 0.31 | 0.00 | 51 | 1047.2 |
| 20260506095103 | 66 | 4 | 3.0 | 9.0 | 0.00 | 0.31 | 0.00 | 53 | 1047.2 |
| 20260506095041 | 66 | 4 | 3.0 | 9.0 | 0.00 | 0.31 | 0.00 | 54 | 1047.2 |
| 20260506094941 | 66 | 233 | 3.0 | 9.0 | 0.00 | 0.31 | 0.00 | 53 | 1047.2 |
| 20260506094841 | 66 | 77 | 4.0 | 9.0 | 0.00 | 0.31 | 0.00 | 51 | 1047.2 |
| 20260506094740 | 66 | 79 | 4.0 | 9.0 | 0.00 | 0.31 | 0.00 | 52 | 1047.2 |
| 20260506094705 | 66 | 282 | 4.0 | 9.0 | 0.00 | 0.31 | 0.00 | 51 | 1047.2 |
| 20260506094654 | 66 | 262 | 4.0 | 9.0 | 0.00 | 0.31 | 0.00 | 52 | 1047.2 |
| 20260506094647 | 66 | 343 | 4.0 | 9.0 | 0.00 | 0.31 | 0.00 | 52 | 1047.2 |
| 20260506094634 | 66 | 312 | 4.0 | 9.0 | 0.00 | 0.31 | 0.00 | 53 | 1047.2 |
| 20260506094626 | 66 | 345 | 4.0 | 9.0 | 0.00 | 0.31 | 0.00 | 52 | 1047.2 |
| 20260506094127 | 65 | 346 | 4.0 | 10.0 | 0.00 | 0.31 | 0.00 | 52 | 1047.3 |
| 20260506094120 | 65 | 343 | 5.0 | 10.0 | 0.00 | 0.31 | 0.00 | 52 | 1047.3 |
| 20260506094111 | 65 | 338 | 5.0 | 11.0 | 0.00 | 0.31 | 0.00 | 53 | 1047.3 |
| 20260506094052 | 65 | 345 | 5.0 | 11.0 | 0.00 | 0.31 | 0.00 | 52 | 1047.2 |
| 20260506093824 | 65 | 359 | 5.0 | 12.0 | 0.00 | 0.31 | 0.00 | 52 | 1047.2 |
| 20260506093532 | 65 | 354 | 5.0 | 12.0 | 0.00 | 0.31 | 0.00 | 52 | 1047.2 |
| 20260506093506 | 65 | 278 | 5.0 | 12.0 | 0.00 | 0.31 | 0.00 | 51 | 1047.2 |
| 20260506093456 | 65 | 293 | 5.0 | 12.0 | 0.00 | 0.31 | 0.00 | 52 | 1047.2 |
| 20260506093205 | 65 | 342 | 5.0 | 12.0 | 0.00 | 0.31 | 0.00 | 51 | 1047.2 |
| 20260506093156 | 65 | 359 | 5.0 | 12.0 | 0.00 | 0.31 | 0.00 | 51 | 1047.2 |
| 20260506092830 | 65 | 350 | 4.0 | 12.0 | 0.00 | 0.31 | 0.00 | 51 | 1047.2 |
| 20260506092731 | 65 | 359 | 5.0 | 11.0 | 0.00 | 0.31 | 0.00 | 50 | 1047.2 |
| 20260506092632 | 65 | 330 | 4.0 | 11.0 | 0.00 | 0.31 | 0.00 | 52 | 1047.2 |
| 20260506092605 | 65 | 332 | 4.0 | 11.0 | 0.00 | 0.31 | 0.00 | 52 | 1047.2 |
| 20260506092529 | 65 | 347 | 4.0 | 10.0 | 0.00 | 0.31 | 0.00 | 52 | 1047.2 |
| 20260506092431 | 65 | 354 | 4.0 | 10.0 | 0.00 | 0.31 | 0.00 | 54 | 1047.2 |
| 20260506092329 | 65 | 312 | 4.0 | 10.0 | 0.00 | 0.31 | 0.00 | 54 | 1047.2 |
| 20260506092229 | 65 | 312 | 4.0 | 10.0 | 0.00 | 0.31 | 0.00 | 53 | 1047.2 |
| 20260506092104 | 65 | 329 | 4.0 | 10.0 | 0.00 | 0.31 | 0.00 | 52 | 1047.2 |
| 20260506092029 | 65 | 328 | 5.0 | 12.0 | 0.00 | 0.31 | 0.00 | 53 | 1047.2 |
| 20260506091929 | 65 | 333 | 5.0 | 12.0 | 0.00 | 0.31 | 0.00 | 52 | 1047.3 |
| 20260506091857 | 65 | 308 | 5.0 | 12.0 | 0.00 | 0.31 | 0.00 | 52 | 1047.3 |
| 20260506091851 | 65 | 283 | 5.0 | 12.0 | 0.00 | 0.31 | 0.00 | 52 | 1047.3 |
| 20260506091838 | 65 | 272 | 5.0 | 12.0 | 0.00 | 0.31 | 0.00 | 53 | 1047.3 |
| 20260506091810 | 65 | 274 | 5.0 | 12.0 | 0.00 | 0.31 | 0.00 | 53 | 1047.3 |
| 20260506091547 | 65 | 274 | 5.0 | 12.0 | 0.00 | 0.31 | 0.00 | 53 | 1047.4 |
| 20260506091227 | 64 | 274 | 5.0 | 12.0 | 0.00 | 0.31 | 0.00 | 54 | 1047.4 |
| 20260506091122 | 64 | 274 | 5.0 | 12.0 | 0.00 | 0.31 | 0.00 | 55 | 1047.4 |
| 20260506091104 | 64 | 272 | 5.0 | 12.0 | 0.00 | 0.31 | 0.00 | 55 | 1047.4 |
| 20260506091025 | 64 | 239 | 4.0 | 11.0 | 0.00 | 0.31 | 0.00 | 55 | 1047.3 |
| 20260506090923 | 64 | 276 | 4.0 | 11.0 | 0.00 | 0.31 | 0.00 | 56 | 1047.3 |
| 20260506090822 | 64 | 264 | 4.0 | 11.0 | 0.00 | 0.31 | 0.00 | 56 | 1047.3 |
| 20260506090718 | 64 | 247 | 3.0 | 8.0 | 0.00 | 0.31 | 0.00 | 56 | 1047.3 |
| 20260506090619 | 64 | 328 | 3.0 | 8.0 | 0.00 | 0.31 | 0.00 | 57 | 1047.3 |
| 20260506090603 | 64 | 331 | 3.0 | 8.0 | 0.00 | 0.31 | 0.00 | 57 | 1047.3 |
| 20260506090518 | 64 | 333 | 3.0 | 8.0 | 0.00 | 0.31 | 0.00 | 57 | 1047.3 |
| 20260506090447 | 64 | 253 | 3.0 | 8.0 | 0.00 | 0.31 | 0.00 | 57 | 1047.3 |
| 20260506090440 | 64 | 251 | 4.0 | 8.0 | 0.00 | 0.31 | 0.00 | 57 | 1047.2 |
| 20260506090104 | 64 | 4 | 3.0 | 11.0 | 0.00 | 0.31 | 0.00 | 56 | 1047.2 |
| 20260506090024 | 64 | 8 | 4.0 | 11.0 | 0.00 | 0.31 | 0.00 | 57 | 1047.3 |
| 20260506085913 | 64 | 9 | 4.0 | 11.0 | 0.00 | 0.31 | 0.00 | 57 | 1047.3 |
| 20260506085817 | 64 | 10 | 4.0 | 11.0 | 0.00 | 0.31 | 0.00 | 58 | 1047.3 |
| 20260506085712 | 64 | 320 | 4.0 | 11.0 | 0.00 | 0.31 | 0.00 | 57 | 1047.3 |
| 20260506085603 | 64 | 320 | 4.0 | 11.0 | 0.00 | 0.31 | 0.00 | 56 | 1047.3 |
| 20260506085515 | 64 | 319 | 4.0 | 11.0 | 0.00 | 0.31 | 0.00 | 55 | 1047.3 |
| 20260506085410 | 64 | 319 | 5.0 | 12.0 | 0.00 | 0.31 | 0.00 | 56 | 1047.3 |
| 20260506085309 | 64 | 324 | 4.0 | 12.0 | 0.00 | 0.31 | 0.00 | 56 | 1047.2 |
| 20260506085223 | 64 | 350 | 4.0 | 12.0 | 0.00 | 0.31 | 0.00 | 57 | 1047.3 |
| 20260506085204 | 63 | 359 | 4.0 | 12.0 | 0.00 | 0.31 | 0.00 | 57 | 1047.2 |
| 20260506085155 | 63 | 359 | 4.0 | 12.0 | 0.00 | 0.31 | 0.00 | 57 | 1047.2 |
| 20260506085146 | 63 | 4 | 4.0 | 12.0 | 0.00 | 0.31 | 0.00 | 58 | 1047.3 |
| 20260506085137 | 63 | 341 | 4.0 | 12.0 | 0.00 | 0.31 | 0.00 | 58 | 1047.3 |
| 20260506084858 | 63 | 336 | 4.0 | 12.0 | 0.00 | 0.31 | 0.00 | 58 | 1047.3 |
| 20260506084631 | 63 | 335 | 4.0 | 12.0 | 0.00 | 0.31 | 0.00 | 58 | 1047.3 |
| 20260506084615 | 63 | 359 | 4.0 | 10.0 | 0.00 | 0.31 | 0.00 | 58 | 1047.2 |
| 20260506084337 | 62 | 4 | 4.0 | 10.0 | 0.00 | 0.31 | 0.00 | 56 | 1047.2 |
| 20260506084108 | 62 | 8 | 4.0 | 10.0 | 0.00 | 0.31 | 0.00 | 57 | 1047.2 |
| 20260506084008 | 62 | 15 | 4.0 | 10.0 | 0.00 | 0.31 | 0.00 | 57 | 1047.2 |
| 20260506083903 | 62 | 293 | 4.0 | 11.0 | 0.00 | 0.31 | 0.00 | 58 | 1047.2 |
| 20260506083844 | 62 | 299 | 5.0 | 11.0 | 0.00 | 0.31 | 0.00 | 57 | 1047.2 |
| 20260506083837 | 62 | 308 | 5.0 | 12.0 | 0.00 | 0.31 | 0.00 | 58 | 1047.2 |
| 20260506083824 | 62 | 310 | 5.0 | 12.0 | 0.00 | 0.31 | 0.00 | 59 | 1047.2 |
| 20260506083501 | 62 | 302 | 5.0 | 12.0 | 0.00 | 0.31 | 0.00 | 59 | 1047.2 |
| 20260506083401 | 62 | 310 | 5.0 | 12.0 | 0.00 | 0.31 | 0.00 | 58 | 1047.1 |
| 20260506083301 | 62 | 310 | 5.0 | 12.0 | 0.00 | 0.31 | 0.00 | 58 | 1047.1 |
| 20260506083200 | 62 | 303 | 5.0 | 12.0 | 0.00 | 0.31 | 0.00 | 57 | 1047.1 |
| 20260506083112 | 62 | 304 | 5.0 | 12.0 | 0.00 | 0.31 | 0.00 | 56 | 1047.1 |
| 20260506083101 | 62 | 304 | 5.0 | 12.0 | 0.00 | 0.31 | 0.00 | 56 | 1047.1 |
| 20260506083034 | 62 | 301 | 5.0 | 12.0 | 0.00 | 0.31 | 0.00 | 58 | 1047.2 |
| 20260506083022 | 62 | 290 | 5.0 | 12.0 | 0.00 | 0.31 | 0.00 | 57 | 1047.2 |
| 20260506082659 | 63 | 308 | 4.0 | 12.0 | 0.00 | 0.31 | 0.00 | 58 | 1047.2 |
| 20260506082614 | 63 | 324 | 4.0 | 12.0 | 0.00 | 0.31 | 0.00 | 58 | 1047.2 |
| 20260506082600 | 63 | 324 | 4.0 | 12.0 | 0.00 | 0.31 | 0.00 | 58 | 1047.2 |
| 20260506082523 | 63 | 318 | 4.0 | 10.0 | 0.00 | 0.31 | 0.00 | 59 | 1047.2 |
| 20260506082515 | 63 | 303 | 4.0 | 10.0 | 0.00 | 0.31 | 0.00 | 59 | 1047.2 |
| 20260506082152 | 63 | 335 | 4.0 | 10.0 | 0.00 | 0.31 | 0.00 | 59 | 1047.2 |
| 20260506082104 | 63 | 334 | 4.0 | 10.0 | 0.00 | 0.31 | 0.00 | 59 | 1047.2 |
| 20260506082053 | 63 | 335 | 4.0 | 10.0 | 0.00 | 0.31 | 0.00 | 59 | 1047.2 |
| 20260506081954 | 63 | 268 | 4.0 | 10.0 | 0.00 | 0.31 | 0.00 | 61 | 1047.2 |
| 20260506081852 | 63 | 267 | 4.0 | 10.0 | 0.00 | 0.31 | 0.00 | 61 | 1047.2 |
| 20260506081747 | 62 | 272 | 3.0 | 10.0 | 0.00 | 0.31 | 0.00 | 61 | 1047.2 |
| 20260506081646 | 62 | 303 | 3.0 | 10.0 | 0.00 | 0.31 | 0.00 | 61 | 1047.2 |
| 20260506081607 | 62 | 274 | 3.0 | 10.0 | 0.00 | 0.31 | 0.00 | 61 | 1047.1 |
| 20260506081547 | 62 | 274 | 3.0 | 10.0 | 0.00 | 0.31 | 0.00 | 61 | 1047.1 |
| 20260506081509 | 62 | 274 | 3.0 | 10.0 | 0.00 | 0.31 | 0.00 | 62 | 1047.1 |
| 20260506081458 | 62 | 278 | 2.0 | 7.0 | 0.00 | 0.31 | 0.00 | 62 | 1047.1 |
| 20260506081452 | 62 | 250 | 2.0 | 7.0 | 0.00 | 0.31 | 0.00 | 63 | 1047.2 |
| 20260506081429 | 62 | 243 | 2.0 | 7.0 | 0.00 | 0.31 | 0.00 | 63 | 1047.1 |
| 20260506081422 | 62 | 243 | 2.0 | 7.0 | 0.00 | 0.31 | 0.00 | 63 | 1047.1 |
| 20260506081415 | 62 | 243 | 2.0 | 7.0 | 0.00 | 0.31 | 0.00 | 64 | 1047.1 |
| 20260506081351 | 62 | 243 | 2.0 | 7.0 | 0.00 | 0.31 | 0.00 | 65 | 1047.1 |
| 20260506080852 | 61 | 241 | 2.0 | 7.0 | 0.00 | 0.31 | 0.00 | 64 | 1047.0 |
| 20260506080845 | 61 | 236 | 2.0 | 7.0 | 0.00 | 0.31 | 0.00 | 64 | 1047.0 |
| 20260506080837 | 61 | 354 | 2.0 | 5.0 | 0.00 | 0.31 | 0.00 | 65 | 1047.0 |
| 20260506080829 | 61 | 12 | 2.0 | 5.0 | 0.00 | 0.31 | 0.00 | 65 | 1047.0 |
| 20260506080559 | 61 | 12 | 2.0 | 5.0 | 0.00 | 0.31 | 0.00 | 65 | 1047.0 |
| 20260506080545 | 61 | 12 | 2.0 | 5.0 | 0.00 | 0.31 | 0.00 | 64 | 1047.0 |
| 20260506080538 | 61 | 12 | 2.0 | 8.0 | 0.00 | 0.31 | 0.00 | 64 | 1046.9 |
| 20260506080316 | 60 | 10 | 2.0 | 8.0 | 0.00 | 0.31 | 0.00 | 66 | 1047.0 |
| 20260506073515 | 59 | 150 | 2.0 | 6.0 | 0.00 | 0.31 | 0.00 | 68 | 1046.8 |
| 20260506073415 | 58 | 246 | 2.0 | 5.0 | 0.00 | 0.31 | 0.00 | 68 | 1046.7 |
| 20260506073316 | 58 | 236 | 2.0 | 5.0 | 0.00 | 0.31 | 0.00 | 68 | 1046.7 |
| 20260506073215 | 58 | 240 | 2.0 | 8.0 | 0.00 | 0.31 | 0.00 | 70 | 1046.7 |
| 20260506073104 | 58 | 247 | 2.0 | 8.0 | 0.00 | 0.31 | 0.00 | 70 | 1046.7 |
| 20260506073018 | 58 | 172 | 3.0 | 8.0 | 0.00 | 0.31 | 0.00 | 70 | 1046.7 |
| 20260506072915 | 58 | 171 | 3.0 | 8.0 | 0.00 | 0.31 | 0.00 | 69 | 1046.7 |
| 20260506072816 | 58 | 172 | 3.0 | 8.0 | 0.00 | 0.31 | 0.00 | 68 | 1046.7 |
| 20260506072715 | 58 | 172 | 3.0 | 8.0 | 0.00 | 0.31 | 0.00 | 69 | 1046.7 |
| 20260506072615 | 58 | 172 | 4.0 | 8.0 | 0.00 | 0.31 | 0.00 | 70 | 1046.7 |
| 20260506072600 | 58 | 172 | 4.0 | 8.0 | 0.00 | 0.31 | 0.00 | 70 | 1046.7 |
| 20260506072521 | 58 | 172 | 4.0 | 8.0 | 0.00 | 0.31 | 0.00 | 70 | 1046.7 |
| 20260506072510 | 58 | 172 | 4.0 | 8.0 | 0.00 | 0.31 | 0.00 | 70 | 1046.7 |
| 20260506072503 | 58 | 170 | 4.0 | 8.0 | 0.00 | 0.31 | 0.00 | 69 | 1046.7 |
| 20260506072449 | 58 | 156 | 4.0 | 9.0 | 0.00 | 0.31 | 0.00 | 69 | 1046.7 |
| 20260506072441 | 58 | 156 | 4.0 | 9.0 | 0.00 | 0.31 | 0.00 | 70 | 1046.7 |
| 20260506072200 | 58 | 156 | 3.0 | 9.0 | 0.00 | 0.31 | 0.00 | 72 | 1046.7 |
| 20260506071934 | 58 | 157 | 3.0 | 9.0 | 0.00 | 0.31 | 0.00 | 72 | 1046.7 |
| 20260506071613 | 58 | 144 | 3.0 | 9.0 | 0.00 | 0.31 | 0.00 | 70 | 1046.7 |
| 20260506071542 | 58 | 133 | 3.0 | 9.0 | 0.00 | 0.31 | 0.00 | 69 | 1046.7 |
| 20260506071510 | 58 | 134 | 3.0 | 9.0 | 0.00 | 0.31 | 0.00 | 70 | 1046.7 |
| 20260506071410 | 58 | 133 | 2.0 | 9.0 | 0.00 | 0.31 | 0.00 | 69 | 1046.6 |
| 20260506071311 | 58 | 134 | 2.0 | 9.0 | 0.00 | 0.31 | 0.00 | 69 | 1046.7 |
| 20260506071209 | 58 | 140 | 2.0 | 8.0 | 0.00 | 0.31 | 0.00 | 69 | 1046.7 |
| 20260506071115 | 58 | 181 | 2.0 | 7.0 | 0.00 | 0.31 | 0.00 | 69 | 1046.7 |
| 20260506071101 | 58 | 182 | 2.0 | 7.0 | 0.00 | 0.31 | 0.00 | 69 | 1046.8 |
| 20260506071051 | 58 | 182 | 2.0 | 7.0 | 0.00 | 0.31 | 0.00 | 70 | 1046.8 |
| 20260506071043 | 58 | 182 | 2.0 | 7.0 | 0.00 | 0.31 | 0.00 | 71 | 1046.7 |
| 20260506071021 | 58 | 286 | 2.0 | 7.0 | 0.00 | 0.31 | 0.00 | 71 | 1046.7 |
| 20260506071012 | 57 | 285 | 2.0 | 7.0 | 0.00 | 0.31 | 0.00 | 71 | 1046.7 |
| 20260506070505 | 57 | 286 | 2.0 | 7.0 | 0.00 | 0.31 | 0.00 | 71 | 1046.7 |
| 20260506070404 | 57 | 285 | 2.0 | 7.0 | 0.00 | 0.31 | 0.00 | 74 | 1046.7 |
| 20260506070304 | 57 | 51 | 2.0 | 4.0 | 0.00 | 0.31 | 0.00 | 73 | 1046.7 |
| 20260506070203 | 57 | 51 | 2.0 | 4.0 | 0.00 | 0.31 | 0.00 | 73 | 1046.7 |
| 20260506070106 | 57 | 51 | 2.0 | 4.0 | 0.00 | 0.31 | 0.00 | 73 | 1046.7 |